GEFSMW_prec_meanprecacc_018.txt.gz
Total_Precipitation_Accumulation
0.56 0.82 1.15 1.54 2.05 2.64 3.10 3.12 2.51 2.02 1.71 1.41 1.03 0.84 0.78 0.64 0.43 0.30 0.21 0.14 0.10 0.06 0.04 0.01 0.00 0.00 0.00 0.00 0.00 0.01 0.02 0.02 0.03 0.04 0.02 0.02 0.02 0.03 0.06 0.06 0.02 0.04 0.11
0.80 1.11 1.47 1.62 1.54 1.66 1.75 1.38 1.10 0.92 0.78 0.67 0.49 0.38 0.33 0.28 0.21 0.17 0.12 0.09 0.07 0.05 0.04 0.01 0.00 0.00 0.00 0.00 0.00 0.00 0.00 0.00 0.00 0.01 0.01 0.00 0.00 0.01 0.03 0.06 0.07 0.08 0.15
1.35 1.52 1.36 1.15 1.07 1.04 0.90 0.61 0.47 0.47 0.41 0.33 0.23 0.20 0.17 0.15 0.12 0.11 0.10 0.09 0.06 0.04 0.03 0.02 0.01 0.00 0.00 0.00 0.00 0.00 0.01 0.00 0.00 0.00 0.01 0.01 0.00 0.00 0.02 0.06 0.09 0.11 0.14
1.59 1.39 0.75 0.47 0.46 0.47 0.48 0.51 0.52 0.41 0.30 0.26 0.18 0.14 0.11 0.10 0.09 0.10 0.10 0.10 0.08 0.06 0.04 0.03 0.02 0.01 0.00 0.00 0.00 0.00 0.01 0.01 0.01 0.01 0.01 0.02 0.03 0.04 0.03 0.05 0.11 0.14 0.13
0.82 0.47 0.19 0.13 0.18 0.28 0.47 0.68 0.66 0.45 0.31 0.27 0.23 0.21 0.19 0.18 0.17 0.16 0.16 0.15 0.14 0.12 0.08 0.06 0.06 0.05 0.02 0.01 0.00 0.01 0.01 0.02 0.02 0.03 0.03 0.03 0.04 0.08 0.10 0.05 0.07 0.13 0.08
0.32 0.16 0.10 0.14 0.21 0.26 0.33 0.42 0.49 0.56 0.51 0.46 0.36 0.33 0.32 0.30 0.27 0.25 0.24 0.23 0.23 0.24 0.20 0.17 0.17 0.18 0.12 0.06 0.03 0.02 0.02 0.03 0.04 0.06 0.06 0.05 0.04 0.05 0.10 0.10 0.09 0.08 0.03
0.16 0.18 0.19 0.22 0.19 0.16 0.15 0.15 0.19 0.29 0.36 0.40 0.42 0.41 0.40 0.36 0.31 0.28 0.24 0.26 0.25 0.26 0.26 0.24 0.26 0.27 0.24 0.18 0.10 0.05 0.03 0.03 0.04 0.05 0.04 0.04 0.04 0.05 0.08 0.08 0.07 0.06 0.07
0.04 0.07 0.08 0.07 0.07 0.07 0.07 0.07 0.07 0.08 0.11 0.14 0.18 0.22 0.28 0.27 0.25 0.30 0.23 0.25 0.29 0.29 0.26 0.23 0.23 0.23 0.24 0.22 0.17 0.10 0.06 0.04 0.04 0.03 0.07 0.11 0.08 0.09 0.07 0.06 0.07 0.09 0.13
0.01 0.01 0.02 0.03 0.04 0.03 0.04 0.04 0.04 0.04 0.04 0.05 0.05 0.06 0.11 0.15 0.16 0.17 0.16 0.17 0.24 0.26 0.24 0.21 0.19 0.18 0.20 0.21 0.19 0.14 0.09 0.05 0.03 0.03 0.08 0.14 0.14 0.13 0.13 0.13 0.15 0.21 0.17
0.01 0.00 0.01 0.01 0.01 0.02 0.02 0.03 0.04 0.03 0.03 0.02 0.02 0.02 0.04 0.08 0.10 0.10 0.12 0.14 0.18 0.21 0.19 0.16 0.13 0.12 0.13 0.14 0.15 0.14 0.13 0.10 0.08 0.08 0.10 0.15 0.18 0.17 0.19 0.21 0.24 0.31 0.29
0.00 0.01 0.00 0.00 0.01 0.01 0.01 0.02 0.02 0.02 0.02 0.02 0.01 0.01 0.01 0.02 0.06 0.10 0.14 0.17 0.19 0.19 0.17 0.15 0.12 0.10 0.10 0.12 0.13 0.14 0.15 0.14 0.12 0.09 0.09 0.13 0.19 0.21 0.22 0.26 0.29 0.31 0.36
0.00 0.00 0.00 0.00 0.01 0.01 0.01 0.01 0.01 0.01 0.01 0.00 0.00 0.00 0.00 0.00 0.01 0.03 0.07 0.13 0.18 0.19 0.19 0.17 0.14 0.10 0.08 0.09 0.09 0.11 0.14 0.18 0.17 0.15 0.14 0.12 0.13 0.15 0.14 0.15 0.21 0.28 0.38
0.00 0.00 0.00 0.00 0.00 0.00 0.00 0.00 0.00 0.00 0.00 0.00 0.00 0.00 0.00 0.00 0.00 0.01 0.01 0.03 0.08 0.13 0.16 0.16 0.14 0.11 0.10 0.08 0.06 0.07 0.09 0.13 0.15 0.17 0.21 0.19 0.17 0.14 0.06 0.03 0.06 0.15 0.30
0.00 0.00 0.00 0.00 0.00 0.00 0.00 0.00 0.00 0.00 0.00 0.00 0.00 0.00 0.01 0.01 0.02 0.02 0.02 0.02 0.02 0.06 0.10 0.13 0.14 0.13 0.11 0.09 0.08 0.07 0.07 0.07 0.09 0.14 0.17 0.16 0.16 0.15 0.09 0.03 0.02 0.08 0.17
0.00 0.00 0.00 0.00 0.00 0.00 0.00 0.00 0.00 0.00 0.00 0.00 0.00 0.00 0.01 0.01 0.02 0.03 0.04 0.04 0.04 0.04 0.08 0.13 0.14 0.13 0.11 0.09 0.09 0.09 0.07 0.07 0.07 0.09 0.12 0.10 0.10 0.09 0.07 0.04 0.04 0.07 0.12
0.00 0.00 0.00 0.00 0.00 0.00 0.00 0.00 0.00 0.00 0.00 0.01 0.01 0.01 0.02 0.02 0.03 0.03 0.03 0.03 0.03 0.04 0.06 0.10 0.13 0.12 0.11 0.09 0.07 0.07 0.08 0.09 0.09 0.11 0.11 0.09 0.07 0.07 0.06 0.05 0.04 0.04 0.07
0.00 0.00 0.00 0.00 0.00 0.00 0.00 0.00 0.00 0.00 0.00 0.00 0.00 0.01 0.02 0.03 0.03 0.04 0.04 0.04 0.04 0.05 0.06 0.07 0.11 0.12 0.13 0.12 0.07 0.06 0.08 0.09 0.11 0.13 0.14 0.11 0.07 0.06 0.06 0.05 0.04 0.03 0.03
0.00 0.00 0.00 0.00 0.00 0.00 0.00 0.00 0.00 0.00 0.00 0.00 0.01 0.01 0.02 0.03 0.04 0.06 0.06 0.07 0.07 0.07 0.06 0.06 0.08 0.11 0.15 0.17 0.13 0.09 0.08 0.11 0.12 0.13 0.13 0.12 0.09 0.06 0.04 0.04 0.03 0.02 0.02
0.00 0.00 0.00 0.00 0.00 0.00 0.00 0.00 0.00 0.00 0.01 0.02 0.02 0.04 0.05 0.07 0.09 0.10 0.10 0.11 0.10 0.09 0.06 0.05 0.05 0.09 0.14 0.17 0.16 0.14 0.10 0.11 0.14 0.15 0.16 0.15 0.11 0.08 0.06 0.03 0.02 0.02 0.02
0.00 0.00 0.00 0.00 0.00 0.00 0.01 0.02 0.03 0.03 0.05 0.05 0.06 0.06 0.08 0.11 0.14 0.16 0.17 0.16 0.14 0.11 0.08 0.05 0.04 0.06 0.14 0.19 0.18 0.17 0.13 0.13 0.16 0.21 0.23 0.22 0.17 0.12 0.08 0.05 0.03 0.02 0.01
0.00 0.00 0.00 0.00 0.00 0.01 0.03 0.06 0.07 0.08 0.08 0.09 0.09 0.09 0.11 0.14 0.15 0.16 0.16 0.17 0.15 0.14 0.12 0.09 0.07 0.07 0.11 0.22 0.23 0.21 0.18 0.16 0.19 0.26 0.33 0.30 0.28 0.20 0.13 0.09 0.06 0.03 0.02
0.00 0.00 0.00 0.00 0.01 0.02 0.06 0.10 0.10 0.09 0.10 0.10 0.10 0.10 0.11 0.11 0.10 0.13 0.15 0.16 0.18 0.16 0.13 0.12 0.10 0.09 0.08 0.12 0.23 0.20 0.16 0.15 0.17 0.28 0.43 0.45 0.43 0.35 0.24 0.16 0.10 0.06 0.03
0.00 0.00 0.00 0.01 0.02 0.04 0.08 0.11 0.10 0.10 0.10 0.11 0.11 0.10 0.10 0.11 0.12 0.15 0.16 0.16 0.16 0.14 0.09 0.08 0.12 0.13 0.11 0.09 0.17 0.18 0.13 0.13 0.18 0.26 0.48 0.60 0.59 0.50 0.39 0.28 0.19 0.10 0.05
0.00 0.01 0.02 0.04 0.05 0.06 0.07 0.08 0.10 0.12 0.14 0.15 0.14 0.13 0.14 0.15 0.16 0.20 0.21 0.21 0.18 0.15 0.11 0.09 0.14 0.15 0.13 0.10 0.13 0.18 0.14 0.15 0.22 0.24 0.35 0.54 0.64 0.60 0.52 0.41 0.28 0.14 0.07
0.01 0.03 0.05 0.08 0.08 0.07 0.06 0.06 0.10 0.17 0.21 0.22 0.19 0.19 0.19 0.19 0.18 0.19 0.20 0.20 0.19 0.16 0.13 0.13 0.18 0.19 0.16 0.15 0.15 0.19 0.20 0.19 0.23 0.22 0.28 0.45 0.59 0.61 0.56 0.48 0.35 0.20 0.10
0.04 0.08 0.11 0.12 0.10 0.08 0.06 0.07 0.13 0.21 0.28 0.28 0.23 0.21 0.21 0.20 0.20 0.19 0.17 0.14 0.11 0.10 0.09 0.09 0.12 0.16 0.13 0.10 0.08 0.13 0.17 0.18 0.19 0.19 0.24 0.34 0.47 0.56 0.58 0.53 0.41 0.24 0.12

GEFSMW_prec_meanprecacc_024.txt.gz
Total_Precipitation_Accumulation
0.57 0.83 1.15 1.55 2.05 2.64 3.11 3.13 2.51 2.02 1.71 1.43 1.07 0.90 0.87 0.78 0.69 0.66 0.60 0.53 0.47 0.41 0.34 0.25 0.19 0.14 0.10 0.06 0.05 0.05 0.06 0.06 0.07 0.07 0.05 0.04 0.03 0.04 0.06 0.06 0.03 0.04 0.11
0.81 1.11 1.47 1.62 1.54 1.66 1.75 1.38 1.10 0.92 0.78 0.68 0.51 0.41 0.37 0.34 0.31 0.30 0.30 0.28 0.31 0.32 0.29 0.23 0.17 0.13 0.09 0.05 0.03 0.03 0.02 0.02 0.02 0.02 0.02 0.01 0.01 0.01 0.03 0.06 0.07 0.08 0.15
1.35 1.52 1.36 1.15 1.07 1.04 0.90 0.61 0.47 0.47 0.41 0.33 0.25 0.22 0.20 0.20 0.20 0.20 0.19 0.19 0.19 0.20 0.20 0.19 0.17 0.12 0.08 0.06 0.04 0.02 0.02 0.01 0.01 0.00 0.01 0.01 0.00 0.00 0.02 0.06 0.09 0.11 0.14
1.59 1.39 0.75 0.47 0.46 0.47 0.48 0.51 0.52 0.41 0.30 0.26 0.19 0.14 0.13 0.12 0.13 0.14 0.15 0.17 0.15 0.14 0.13 0.14 0.14 0.12 0.10 0.08 0.05 0.03 0.03 0.02 0.01 0.01 0.01 0.02 0.03 0.04 0.03 0.05 0.11 0.14 0.13
0.82 0.47 0.19 0.13 0.18 0.28 0.47 0.68 0.66 0.45 0.31 0.27 0.23 0.21 0.19 0.18 0.17 0.17 0.18 0.19 0.20 0.19 0.17 0.15 0.15 0.12 0.12 0.11 0.08 0.06 0.05 0.04 0.03 0.03 0.03 0.03 0.04 0.08 0.10 0.05 0.07 0.13 0.08
0.32 0.16 0.10 0.14 0.21 0.26 0.33 0.42 0.49 0.56 0.51 0.46 0.37 0.33 0.32 0.30 0.27 0.26 0.24 0.25 0.26 0.28 0.27 0.26 0.28 0.29 0.22 0.14 0.10 0.08 0.07 0.06 0.06 0.06 0.06 0.05 0.04 0.05 0.10 0.10 0.09 0.08 0.03
0.16 0.18 0.19 0.22 0.19 0.16 0.15 0.15 0.19 0.29 0.36 0.40 0.42 0.41 0.40 0.36 0.31 0.28 0.24 0.26 0.25 0.27 0.29 0.29 0.33 0.36 0.35 0.29 0.21 0.13 0.09 0.08 0.07 0.06 0.05 0.04 0.04 0.05 0.08 0.08 0.07 0.07 0.07
0.04 0.07 0.08 0.07 0.07 0.07 0.07 0.07 0.07 0.08 0.11 0.14 0.18 0.22 0.28 0.27 0.25 0.30 0.23 0.25 0.29 0.29 0.27 0.25 0.25 0.27 0.30 0.31 0.27 0.21 0.16 0.12 0.10 0.07 0.09 0.11 0.09 0.09 0.07 0.06 0.08 0.09 0.13
0.01 0.01 0.02 0.03 0.04 0.03 0.04 0.04 0.04 0.04 0.04 0.05 0.05 0.06 0.11 0.15 0.16 0.17 0.16 0.17 0.24 0.26 0.24 0.22 0.19 0.19 0.22 0.25 0.26 0.24 0.23 0.19 0.14 0.12 0.14 0.16 0.15 0.13 0.13 0.13 0.15 0.22 0.17
0.01 0.00 0.01 0.01 0.01 0.02 0.02 0.03 0.04 0.03 0.03 0.02 0.02 0.02 0.04 0.08 0.10 0.11 0.12 0.14 0.18 0.21 0.19 0.16 0.13 0.12 0.13 0.15 0.19 0.22 0.25 0.29 0.30 0.27 0.23 0.23 0.22 0.20 0.20 0.22 0.24 0.32 0.29
0.00 0.01 0.00 0.00 0.01 0.01 0.01 0.02 0.02 0.02 0.02 0.02 0.01 0.01 0.01 0.02 0.06 0.10 0.14 0.17 0.19 0.19 0.18 0.15 0.13 0.10 0.10 0.12 0.14 0.18 0.24 0.30 0.38 0.44 0.41 0.33 0.32 0.30 0.27 0.29 0.30 0.32 0.36
0.00 0.00 0.00 0.00 0.01 0.01 0.01 0.01 0.01 0.01 0.01 0.00 0.00 0.00 0.00 0.00 0.01 0.03 0.07 0.13 0.18 0.20 0.19 0.17 0.14 0.10 0.08 0.09 0.10 0.12 0.17 0.25 0.35 0.50 0.64 0.60 0.48 0.36 0.27 0.24 0.24 0.30 0.39
0.00 0.00 0.00 0.00 0.00 0.00 0.00 0.00 0.00 0.00 0.00 0.00 0.00 0.00 0.00 0.00 0.00 0.01 0.01 0.03 0.08 0.14 0.16 0.16 0.15 0.12 0.10 0.09 0.07 0.07 0.09 0.14 0.20 0.32 0.54 0.72 0.79 0.63 0.37 0.22 0.18 0.22 0.33
0.00 0.00 0.00 0.00 0.00 0.00 0.00 0.00 0.00 0.00 0.00 0.00 0.00 0.00 0.01 0.01 0.02 0.02 0.02 0.02 0.03 0.07 0.11 0.15 0.15 0.14 0.12 0.10 0.08 0.08 0.07 0.08 0.11 0.19 0.28 0.42 0.61 0.72 0.66 0.43 0.26 0.23 0.26
0.00 0.00 0.00 0.00 0.00 0.00 0.00 0.00 0.00 0.00 0.00 0.00 0.00 0.01 0.01 0.01 0.02 0.04 0.04 0.04 0.05 0.06 0.10 0.15 0.16 0.15 0.13 0.09 0.09 0.10 0.08 0.08 0.08 0.11 0.16 0.19 0.28 0.41 0.53 0.55 0.47 0.36 0.28
0.00 0.00 0.00 0.00 0.00 0.00 0.00 0.00 0.00 0.00 0.00 0.01 0.01 0.01 0.02 0.03 0.04 0.04 0.04 0.05 0.06 0.08 0.11 0.15 0.18 0.17 0.12 0.10 0.08 0.08 0.10 0.11 0.12 0.13 0.14 0.13 0.14 0.19 0.29 0.39 0.44 0.44 0.36
0.00 0.00 0.00 0.00 0.00 0.00 0.00 0.00 0.00 0.00 0.00 0.00 0.01 0.01 0.03 0.04 0.05 0.06 0.06 0.07 0.09 0.11 0.12 0.14 0.20 0.23 0.22 0.17 0.09 0.07 0.10 0.13 0.15 0.17 0.18 0.14 0.09 0.10 0.16 0.23 0.30 0.33 0.31
0.00 0.00 0.00 0.00 0.00 0.00 0.00 0.00 0.00 0.00 0.00 0.01 0.01 0.02 0.04 0.06 0.07 0.10 0.11 0.12 0.13 0.14 0.14 0.15 0.19 0.26 0.27 0.25 0.17 0.11 0.11 0.15 0.16 0.18 0.18 0.17 0.12 0.08 0.08 0.13 0.18 0.22 0.23
0.00 0.00 0.00 0.00 0.00 0.00 0.00 0.00 0.00 0.01 0.01 0.02 0.04 0.05 0.08 0.10 0.13 0.15 0.17 0.18 0.19 0.17 0.15 0.14 0.17 0.23 0.28 0.27 0.21 0.16 0.15 0.16 0.18 0.19 0.20 0.19 0.16 0.11 0.06 0.06 0.10 0.15 0.18
0.00 0.00 0.00 0.00 0.00 0.00 0.01 0.02 0.03 0.04 0.05 0.06 0.07 0.08 0.11 0.16 0.19 0.22 0.25 0.25 0.25 0.21 0.17 0.14 0.15 0.18 0.28 0.31 0.23 0.20 0.17 0.17 0.20 0.26 0.27 0.24 0.19 0.15 0.09 0.06 0.06 0.08 0.12
0.00 0.00 0.00 0.00 0.00 0.01 0.03 0.06 0.08 0.09 0.09 0.10 0.10 0.11 0.15 0.18 0.20 0.22 0.24 0.25 0.24 0.23 0.22 0.18 0.17 0.17 0.22 0.31 0.27 0.23 0.22 0.20 0.24 0.31 0.38 0.35 0.29 0.20 0.13 0.09 0.07 0.06 0.09
0.00 0.00 0.00 0.00 0.01 0.02 0.07 0.10 0.11 0.10 0.10 0.11 0.12 0.13 0.14 0.14 0.13 0.18 0.21 0.23 0.25 0.25 0.22 0.21 0.19 0.18 0.16 0.19 0.26 0.21 0.17 0.17 0.21 0.32 0.49 0.51 0.44 0.35 0.24 0.17 0.12 0.08 0.07
0.00 0.00 0.00 0.01 0.02 0.04 0.08 0.12 0.11 0.11 0.11 0.12 0.13 0.13 0.12 0.14 0.16 0.20 0.22 0.22 0.23 0.22 0.18 0.16 0.20 0.22 0.20 0.15 0.19 0.18 0.13 0.13 0.20 0.31 0.52 0.64 0.60 0.51 0.40 0.29 0.22 0.14 0.10
0.00 0.01 0.02 0.04 0.05 0.06 0.07 0.09 0.10 0.13 0.16 0.16 0.16 0.15 0.16 0.17 0.19 0.24 0.27 0.29 0.26 0.23 0.19 0.16 0.20 0.21 0.20 0.16 0.17 0.19 0.15 0.15 0.23 0.26 0.37 0.55 0.65 0.61 0.54 0.44 0.32 0.22 0.16
0.01 0.03 0.06 0.08 0.08 0.07 0.06 0.07 0.11 0.19 0.24 0.24 0.21 0.20 0.21 0.21 0.20 0.23 0.25 0.25 0.25 0.21 0.19 0.19 0.24 0.24 0.21 0.19 0.17 0.22 0.23 0.22 0.27 0.26 0.33 0.49 0.62 0.65 0.60 0.53 0.42 0.32 0.27
0.04 0.08 0.11 0.12 0.10 0.08 0.07 0.08 0.14 0.23 0.31 0.31 0.25 0.22 0.22 0.23 0.22 0.21 0.20 0.16 0.13 0.12 0.11 0.12 0.15 0.19 0.16 0.11 0.08 0.13 0.18 0.19 0.20 0.22 0.29 0.39 0.52 0.62 0.64 0.62 0.54 0.42 0.34

GEFSMW_prec_meanprecacc_030.txt.gz
Total_Precipitation_Accumulation
0.57 0.83 1.16 1.55 2.06 2.65 3.11 3.14 2.52 2.02 1.71 1.43 1.07 0.91 0.88 0.80 0.71 0.69 0.64 0.60 0.56 0.51 0.46 0.40 0.39 0.35 0.32 0.32 0.32 0.35 0.38 0.35 0.34 0.32 0.26 0.21 0.18 0.18 0.20 0.17 0.14 0.16 0.25
0.81 1.11 1.47 1.62 1.54 1.66 1.75 1.38 1.10 0.92 0.78 0.68 0.51 0.41 0.37 0.35 0.34 0.34 0.35 0.33 0.36 0.40 0.38 0.36 0.35 0.33 0.30 0.26 0.27 0.28 0.26 0.24 0.24 0.23 0.18 0.13 0.12 0.12 0.09 0.13 0.13 0.13 0.23
1.35 1.52 1.36 1.15 1.07 1.04 0.90 0.61 0.47 0.47 0.41 0.33 0.25 0.22 0.21 0.21 0.21 0.21 0.22 0.22 0.23 0.26 0.29 0.32 0.35 0.34 0.30 0.27 0.26 0.24 0.21 0.18 0.16 0.16 0.13 0.09 0.06 0.06 0.07 0.10 0.13 0.13 0.17
1.59 1.39 0.75 0.47 0.46 0.47 0.48 0.51 0.52 0.41 0.30 0.26 0.19 0.14 0.13 0.13 0.13 0.14 0.15 0.17 0.16 0.16 0.18 0.23 0.29 0.29 0.30 0.29 0.22 0.21 0.24 0.21 0.14 0.13 0.12 0.08 0.08 0.10 0.08 0.10 0.13 0.16 0.15
0.82 0.47 0.19 0.13 0.18 0.28 0.47 0.68 0.66 0.45 0.31 0.27 0.23 0.21 0.19 0.18 0.17 0.17 0.18 0.20 0.20 0.20 0.17 0.17 0.22 0.26 0.32 0.36 0.32 0.29 0.26 0.23 0.17 0.14 0.16 0.13 0.08 0.11 0.13 0.10 0.11 0.15 0.09
0.32 0.16 0.10 0.14 0.21 0.26 0.33 0.42 0.49 0.56 0.51 0.46 0.37 0.34 0.33 0.31 0.28 0.26 0.25 0.25 0.26 0.28 0.27 0.27 0.29 0.33 0.32 0.33 0.34 0.36 0.33 0.29 0.25 0.17 0.17 0.22 0.13 0.07 0.11 0.11 0.12 0.12 0.04
0.16 0.18 0.19 0.22 0.19 0.16 0.15 0.15 0.19 0.29 0.36 0.40 0.42 0.42 0.41 0.36 0.32 0.28 0.24 0.27 0.25 0.27 0.29 0.29 0.33 0.37 0.36 0.34 0.32 0.32 0.36 0.40 0.37 0.26 0.17 0.16 0.17 0.12 0.09 0.08 0.07 0.08 0.08
0.04 0.07 0.08 0.07 0.07 0.07 0.07 0.07 0.07 0.08 0.11 0.14 0.18 0.22 0.28 0.27 0.26 0.30 0.24 0.25 0.29 0.29 0.27 0.25 0.25 0.27 0.31 0.32 0.29 0.26 0.27 0.32 0.39 0.38 0.35 0.30 0.19 0.17 0.11 0.08 0.09 0.11 0.15
0.01 0.01 0.02 0.03 0.04 0.03 0.04 0.04 0.04 0.04 0.04 0.05 0.05 0.06 0.11 0.15 0.16 0.17 0.16 0.17 0.24 0.26 0.24 0.22 0.20 0.19 0.22 0.26 0.27 0.25 0.26 0.26 0.27 0.33 0.43 0.43 0.32 0.24 0.19 0.17 0.17 0.25 0.22
0.01 0.00 0.01 0.01 0.01 0.02 0.02 0.03 0.04 0.03 0.03 0.02 0.02 0.02 0.04 0.08 0.10 0.11 0.12 0.14 0.18 0.21 0.19 0.16 0.13 0.13 0.13 0.16 0.20 0.23 0.27 0.31 0.34 0.36 0.41 0.49 0.50 0.43 0.36 0.32 0.30 0.36 0.34
0.00 0.01 0.00 0.00 0.01 0.01 0.01 0.02 0.02 0.02 0.02 0.02 0.01 0.01 0.01 0.02 0.06 0.10 0.15 0.18 0.19 0.20 0.18 0.16 0.13 0.11 0.11 0.13 0.16 0.19 0.25 0.31 0.40 0.49 0.50 0.48 0.58 0.62 0.56 0.52 0.46 0.44 0.45
0.00 0.00 0.00 0.00 0.01 0.01 0.01 0.01 0.01 0.01 0.01 0.00 0.00 0.00 0.00 0.00 0.01 0.03 0.07 0.14 0.19 0.20 0.20 0.18 0.16 0.11 0.09 0.10 0.12 0.14 0.18 0.26 0.36 0.52 0.68 0.69 0.64 0.61 0.57 0.54 0.53 0.53 0.57
0.00 0.00 0.00 0.00 0.00 0.00 0.00 0.00 0.00 0.00 0.00 0.00 0.00 0.00 0.00 0.01 0.01 0.01 0.01 0.03 0.09 0.15 0.18 0.18 0.17 0.15 0.13 0.11 0.10 0.10 0.12 0.17 0.22 0.34 0.57 0.76 0.89 0.82 0.62 0.51 0.47 0.51 0.59
0.00 0.00 0.00 0.00 0.00 0.00 0.00 0.00 0.00 0.00 0.00 0.00 0.00 0.00 0.01 0.02 0.03 0.03 0.03 0.03 0.04 0.08 0.13 0.17 0.19 0.17 0.16 0.14 0.12 0.12 0.12 0.13 0.14 0.21 0.31 0.44 0.65 0.82 0.86 0.73 0.58 0.54 0.57
0.00 0.00 0.00 0.00 0.00 0.00 0.00 0.00 0.00 0.00 0.00 0.01 0.01 0.01 0.01 0.02 0.03 0.04 0.05 0.06 0.06 0.07 0.13 0.19 0.21 0.20 0.18 0.12 0.13 0.16 0.13 0.14 0.14 0.15 0.19 0.22 0.30 0.44 0.61 0.73 0.77 0.72 0.63
0.00 0.00 0.00 0.00 0.00 0.00 0.00 0.00 0.00 0.00 0.01 0.01 0.02 0.02 0.03 0.04 0.05 0.05 0.05 0.06 0.08 0.12 0.15 0.19 0.23 0.23 0.17 0.12 0.11 0.13 0.16 0.19 0.21 0.21 0.20 0.17 0.17 0.21 0.32 0.45 0.59 0.73 0.74
0.00 0.00 0.00 0.00 0.00 0.00 0.00 0.01 0.01 0.01 0.01 0.01 0.01 0.02 0.04 0.06 0.07 0.07 0.08 0.11 0.14 0.16 0.18 0.19 0.27 0.31 0.30 0.21 0.13 0.09 0.15 0.20 0.25 0.28 0.28 0.19 0.11 0.14 0.18 0.25 0.35 0.44 0.56
0.00 0.00 0.00 0.00 0.00 0.00 0.00 0.01 0.01 0.01 0.01 0.02 0.02 0.04 0.06 0.07 0.09 0.12 0.15 0.18 0.21 0.21 0.21 0.22 0.27 0.36 0.36 0.30 0.21 0.14 0.16 0.22 0.26 0.29 0.29 0.25 0.19 0.16 0.16 0.19 0.22 0.27 0.32
0.00 0.00 0.00 0.00 0.00 0.00 0.01 0.01 0.01 0.02 0.02 0.03 0.05 0.07 0.09 0.13 0.16 0.18 0.22 0.25 0.26 0.24 0.23 0.22 0.26 0.34 0.40 0.35 0.24 0.20 0.22 0.25 0.27 0.28 0.29 0.29 0.25 0.18 0.12 0.16 0.18 0.21 0.25
0.00 0.00 0.00 0.00 0.00 0.02 0.03 0.03 0.04 0.05 0.06 0.07 0.08 0.10 0.13 0.19 0.23 0.27 0.31 0.33 0.33 0.29 0.25 0.22 0.24 0.30 0.41 0.41 0.27 0.23 0.25 0.29 0.32 0.40 0.41 0.35 0.31 0.24 0.13 0.13 0.15 0.16 0.19
0.00 0.00 0.00 0.00 0.01 0.03 0.06 0.08 0.09 0.10 0.10 0.11 0.11 0.13 0.17 0.22 0.24 0.27 0.31 0.33 0.33 0.32 0.31 0.27 0.27 0.29 0.34 0.40 0.30 0.26 0.29 0.34 0.40 0.47 0.53 0.46 0.36 0.24 0.16 0.13 0.15 0.13 0.16
0.00 0.00 0.00 0.01 0.02 0.04 0.09 0.12 0.12 0.11 0.11 0.12 0.13 0.15 0.16 0.17 0.17 0.24 0.28 0.32 0.35 0.34 0.32 0.30 0.30 0.31 0.28 0.27 0.30 0.22 0.22 0.28 0.40 0.51 0.65 0.65 0.54 0.39 0.26 0.18 0.15 0.11 0.11
0.00 0.00 0.00 0.02 0.03 0.06 0.11 0.13 0.12 0.12 0.12 0.13 0.14 0.14 0.15 0.17 0.22 0.28 0.30 0.32 0.34 0.33 0.29 0.26 0.31 0.35 0.33 0.25 0.21 0.19 0.14 0.17 0.32 0.47 0.69 0.78 0.68 0.55 0.42 0.31 0.23 0.16 0.12
0.00 0.01 0.02 0.05 0.06 0.07 0.08 0.10 0.11 0.14 0.17 0.18 0.17 0.17 0.19 0.21 0.26 0.34 0.36 0.39 0.38 0.32 0.27 0.24 0.30 0.33 0.33 0.28 0.24 0.23 0.17 0.18 0.28 0.34 0.46 0.62 0.69 0.64 0.58 0.46 0.33 0.23 0.17
0.01 0.03 0.06 0.09 0.09 0.08 0.07 0.07 0.12 0.20 0.25 0.25 0.22 0.22 0.23 0.25 0.27 0.32 0.35 0.31 0.32 0.24 0.22 0.23 0.31 0.34 0.34 0.28 0.23 0.29 0.31 0.30 0.33 0.34 0.43 0.57 0.68 0.69 0.66 0.60 0.48 0.36 0.28
0.04 0.08 0.12 0.13 0.11 0.08 0.07 0.09 0.15 0.24 0.32 0.32 0.26 0.24 0.24 0.27 0.30 0.29 0.30 0.24 0.15 0.12 0.11 0.12 0.16 0.21 0.19 0.12 0.09 0.14 0.19 0.20 0.22 0.27 0.41 0.53 0.65 0.73 0.73 0.71 0.63 0.49 0.39

GEFSMW_prec_meanprecacc_036.txt.gz
Total_Precipitation_Accumulation
0.58 0.83 1.16 1.55 2.06 2.65 3.12 3.14 2.52 2.02 1.71 1.43 1.07 0.91 0.88 0.80 0.71 0.69 0.64 0.61 0.56 0.52 0.47 0.41 0.39 0.35 0.34 0.36 0.38 0.46 0.53 0.56 0.62 0.68 0.62 0.53 0.45 0.41 0.40 0.35 0.30 0.32 0.42
0.82 1.12 1.47 1.62 1.54 1.66 1.75 1.38 1.10 0.92 0.78 0.68 0.51 0.41 0.37 0.35 0.34 0.35 0.35 0.33 0.37 0.40 0.39 0.37 0.36 0.34 0.33 0.31 0.34 0.39 0.42 0.45 0.51 0.54 0.48 0.40 0.36 0.30 0.23 0.26 0.25 0.24 0.37
1.37 1.53 1.36 1.15 1.07 1.04 0.90 0.61 0.47 0.47 0.41 0.33 0.25 0.22 0.21 0.21 0.21 0.22 0.22 0.22 0.23 0.26 0.29 0.33 0.36 0.35 0.31 0.29 0.30 0.32 0.32 0.32 0.35 0.41 0.41 0.33 0.25 0.21 0.20 0.22 0.22 0.22 0.27
1.60 1.39 0.75 0.47 0.46 0.47 0.48 0.51 0.52 0.41 0.30 0.26 0.19 0.14 0.13 0.13 0.13 0.15 0.15 0.17 0.16 0.16 0.18 0.24 0.29 0.30 0.31 0.30 0.24 0.24 0.29 0.29 0.26 0.27 0.30 0.25 0.23 0.24 0.23 0.22 0.23 0.26 0.25
0.83 0.47 0.19 0.13 0.18 0.28 0.47 0.68 0.66 0.45 0.31 0.27 0.23 0.21 0.19 0.18 0.17 0.17 0.18 0.20 0.20 0.20 0.17 0.17 0.22 0.27 0.33 0.38 0.34 0.31 0.29 0.27 0.23 0.23 0.29 0.27 0.20 0.21 0.24 0.23 0.22 0.24 0.17
0.32 0.16 0.10 0.14 0.21 0.26 0.33 0.42 0.49 0.56 0.51 0.46 0.37 0.34 0.33 0.31 0.28 0.26 0.25 0.25 0.26 0.28 0.27 0.27 0.30 0.33 0.33 0.34 0.36 0.39 0.37 0.35 0.31 0.24 0.26 0.38 0.33 0.20 0.22 0.22 0.24 0.22 0.10
0.16 0.18 0.19 0.22 0.19 0.16 0.15 0.15 0.19 0.29 0.36 0.40 0.42 0.42 0.41 0.36 0.32 0.28 0.24 0.27 0.25 0.27 0.29 0.29 0.33 0.37 0.37 0.34 0.32 0.33 0.38 0.44 0.43 0.33 0.25 0.28 0.39 0.33 0.24 0.22 0.19 0.19 0.16
0.05 0.07 0.09 0.08 0.07 0.07 0.07 0.07 0.07 0.08 0.11 0.14 0.18 0.22 0.28 0.27 0.26 0.30 0.24 0.25 0.29 0.29 0.27 0.25 0.25 0.27 0.31 0.32 0.29 0.26 0.27 0.33 0.42 0.44 0.44 0.40 0.33 0.40 0.32 0.24 0.23 0.24 0.27
0.01 0.01 0.02 0.03 0.04 0.03 0.04 0.04 0.04 0.04 0.04 0.05 0.05 0.06 0.11 0.15 0.16 0.17 0.16 0.17 0.24 0.26 0.24 0.22 0.20 0.19 0.22 0.26 0.27 0.25 0.26 0.26 0.28 0.36 0.48 0.50 0.40 0.37 0.36 0.33 0.34 0.42 0.37
0.01 0.00 0.01 0.01 0.01 0.02 0.02 0.03 0.04 0.03 0.03 0.02 0.02 0.02 0.04 0.08 0.10 0.11 0.12 0.15 0.18 0.21 0.19 0.16 0.13 0.13 0.14 0.16 0.20 0.23 0.27 0.32 0.35 0.36 0.42 0.53 0.57 0.50 0.47 0.46 0.47 0.55 0.51
0.00 0.01 0.00 0.00 0.01 0.01 0.01 0.02 0.02 0.02 0.02 0.02 0.01 0.01 0.01 0.02 0.06 0.10 0.15 0.18 0.19 0.20 0.19 0.16 0.14 0.11 0.11 0.13 0.16 0.20 0.25 0.32 0.41 0.49 0.50 0.49 0.60 0.68 0.64 0.62 0.61 0.62 0.63
0.00 0.00 0.00 0.00 0.01 0.01 0.01 0.01 0.01 0.01 0.01 0.00 0.00 0.00 0.00 0.00 0.01 0.03 0.08 0.14 0.19 0.20 0.20 0.18 0.16 0.11 0.09 0.10 0.12 0.14 0.19 0.27 0.37 0.53 0.68 0.70 0.65 0.63 0.62 0.62 0.63 0.66 0.74
0.00 0.00 0.00 0.00 0.00 0.00 0.00 0.00 0.00 0.00 0.00 0.00 0.00 0.00 0.00 0.01 0.01 0.01 0.01 0.03 0.09 0.15 0.18 0.18 0.17 0.15 0.13 0.11 0.10 0.11 0.13 0.18 0.23 0.36 0.59 0.77 0.90 0.82 0.64 0.55 0.54 0.61 0.74
0.00 0.00 0.00 0.00 0.00 0.00 0.00 0.00 0.00 0.00 0.00 0.00 0.00 0.00 0.01 0.02 0.03 0.03 0.03 0.03 0.04 0.08 0.13 0.17 0.19 0.18 0.16 0.14 0.12 0.12 0.13 0.13 0.16 0.23 0.33 0.46 0.66 0.82 0.87 0.74 0.61 0.61 0.68
0.00 0.00 0.00 0.00 0.00 0.00 0.00 0.00 0.00 0.00 0.00 0.01 0.01 0.01 0.01 0.02 0.03 0.04 0.05 0.06 0.06 0.07 0.13 0.19 0.21 0.20 0.18 0.12 0.13 0.16 0.14 0.15 0.15 0.18 0.22 0.25 0.33 0.46 0.62 0.74 0.79 0.75 0.69
0.00 0.00 0.00 0.00 0.00 0.00 0.00 0.00 0.00 0.00 0.01 0.01 0.02 0.02 0.03 0.04 0.05 0.05 0.05 0.07 0.08 0.12 0.15 0.19 0.23 0.23 0.17 0.12 0.11 0.13 0.16 0.20 0.24 0.24 0.22 0.20 0.20 0.24 0.34 0.46 0.60 0.74 0.77
0.00 0.00 0.00 0.00 0.00 0.00 0.00 0.01 0.01 0.01 0.01 0.01 0.02 0.02 0.04 0.06 0.07 0.07 0.08 0.11 0.14 0.17 0.18 0.19 0.27 0.31 0.30 0.21 0.13 0.10 0.15 0.21 0.26 0.30 0.31 0.21 0.13 0.17 0.21 0.28 0.36 0.45 0.57
0.00 0.00 0.00 0.00 0.00 0.00 0.00 0.01 0.01 0.01 0.02 0.02 0.02 0.04 0.06 0.07 0.09 0.12 0.15 0.18 0.21 0.21 0.21 0.22 0.27 0.36 0.36 0.30 0.21 0.14 0.16 0.23 0.26 0.30 0.31 0.28 0.21 0.20 0.21 0.24 0.25 0.28 0.33
0.00 0.00 0.00 0.00 0.00 0.00 0.01 0.01 0.02 0.02 0.02 0.03 0.05 0.07 0.09 0.13 0.16 0.18 0.22 0.25 0.27 0.24 0.23 0.23 0.26 0.35 0.40 0.35 0.25 0.21 0.22 0.26 0.28 0.30 0.32 0.33 0.28 0.21 0.18 0.23 0.23 0.24 0.26
0.00 0.00 0.00 0.00 0.00 0.02 0.03 0.03 0.04 0.05 0.06 0.07 0.08 0.10 0.14 0.19 0.23 0.27 0.31 0.33 0.34 0.29 0.26 0.22 0.25 0.30 0.42 0.41 0.28 0.24 0.25 0.30 0.33 0.42 0.44 0.41 0.37 0.30 0.19 0.20 0.22 0.21 0.21
0.00 0.00 0.00 0.00 0.01 0.03 0.06 0.08 0.09 0.10 0.10 0.11 0.11 0.13 0.17 0.22 0.24 0.28 0.31 0.34 0.34 0.33 0.31 0.28 0.28 0.30 0.35 0.41 0.31 0.26 0.30 0.35 0.42 0.50 0.59 0.54 0.44 0.32 0.23 0.20 0.22 0.19 0.22
0.00 0.00 0.00 0.01 0.02 0.05 0.09 0.12 0.13 0.11 0.11 0.12 0.13 0.15 0.16 0.17 0.17 0.24 0.28 0.32 0.36 0.35 0.33 0.31 0.30 0.32 0.29 0.28 0.31 0.23 0.22 0.30 0.44 0.57 0.72 0.75 0.63 0.46 0.32 0.25 0.22 0.19 0.19
0.00 0.00 0.00 0.02 0.03 0.06 0.11 0.13 0.12 0.12 0.12 0.13 0.14 0.14 0.15 0.17 0.22 0.29 0.31 0.33 0.36 0.34 0.29 0.27 0.31 0.35 0.34 0.26 0.22 0.19 0.14 0.19 0.37 0.54 0.77 0.86 0.75 0.62 0.48 0.37 0.30 0.23 0.19
0.00 0.01 0.02 0.05 0.06 0.07 0.08 0.10 0.11 0.14 0.17 0.18 0.17 0.17 0.19 0.21 0.26 0.34 0.37 0.40 0.39 0.34 0.28 0.25 0.30 0.33 0.34 0.29 0.25 0.24 0.18 0.19 0.31 0.39 0.53 0.69 0.75 0.69 0.62 0.51 0.38 0.29 0.24
0.01 0.03 0.06 0.09 0.09 0.08 0.07 0.08 0.12 0.20 0.25 0.25 0.23 0.22 0.23 0.25 0.27 0.32 0.36 0.33 0.33 0.26 0.22 0.24 0.31 0.34 0.34 0.28 0.23 0.30 0.32 0.31 0.35 0.37 0.49 0.63 0.72 0.73 0.70 0.65 0.53 0.40 0.34
0.04 0.08 0.12 0.13 0.11 0.08 0.07 0.09 0.15 0.24 0.33 0.32 0.26 0.24 0.24 0.28 0.30 0.30 0.31 0.25 0.16 0.13 0.12 0.12 0.16 0.21 0.19 0.12 0.09 0.14 0.19 0.20 0.22 0.28 0.45 0.58 0.70 0.77 0.78 0.76 0.67 0.54 0.43

GEFSMW_prec_meanprecacc_042.txt.gz
Total_Precipitation_Accumulation
0.60 0.85 1.17 1.56 2.07 2.66 3.12 3.14 2.52 2.02 1.71 1.43 1.07 0.91 0.88 0.80 0.71 0.69 0.64 0.61 0.56 0.52 0.47 0.41 0.39 0.35 0.34 0.36 0.39 0.46 0.53 0.57 0.64 0.71 0.69 0.62 0.58 0.55 0.52 0.46 0.41 0.41 0.50
0.84 1.13 1.47 1.63 1.54 1.66 1.75 1.38 1.10 0.92 0.78 0.68 0.51 0.41 0.37 0.35 0.34 0.35 0.35 0.33 0.37 0.40 0.39 0.37 0.36 0.34 0.33 0.31 0.34 0.39 0.43 0.45 0.52 0.58 0.56 0.50 0.47 0.43 0.36 0.40 0.38 0.36 0.47
1.38 1.53 1.37 1.16 1.07 1.04 0.90 0.61 0.47 0.47 0.41 0.33 0.25 0.22 0.21 0.21 0.21 0.22 0.22 0.22 0.23 0.26 0.29 0.33 0.36 0.35 0.31 0.29 0.30 0.32 0.32 0.33 0.37 0.45 0.49 0.42 0.36 0.32 0.29 0.30 0.31 0.33 0.38
1.60 1.39 0.75 0.48 0.46 0.47 0.48 0.51 0.52 0.41 0.30 0.26 0.19 0.14 0.13 0.13 0.13 0.15 0.15 0.17 0.16 0.16 0.18 0.24 0.29 0.30 0.31 0.30 0.24 0.24 0.29 0.29 0.26 0.30 0.36 0.32 0.31 0.35 0.34 0.31 0.31 0.34 0.34
0.83 0.47 0.19 0.13 0.18 0.28 0.47 0.68 0.66 0.45 0.31 0.27 0.23 0.21 0.19 0.18 0.17 0.17 0.18 0.20 0.20 0.20 0.17 0.17 0.22 0.27 0.33 0.38 0.34 0.31 0.29 0.28 0.24 0.24 0.32 0.32 0.25 0.29 0.34 0.34 0.31 0.31 0.23
0.32 0.16 0.10 0.14 0.21 0.26 0.33 0.42 0.49 0.56 0.51 0.46 0.37 0.34 0.33 0.31 0.28 0.26 0.25 0.25 0.26 0.28 0.27 0.27 0.30 0.33 0.33 0.34 0.36 0.39 0.37 0.35 0.31 0.24 0.27 0.40 0.36 0.25 0.28 0.29 0.30 0.28 0.15
0.16 0.18 0.19 0.22 0.19 0.16 0.15 0.15 0.19 0.29 0.36 0.40 0.42 0.42 0.41 0.36 0.32 0.28 0.24 0.27 0.25 0.27 0.29 0.29 0.33 0.37 0.37 0.34 0.32 0.33 0.38 0.44 0.43 0.33 0.26 0.29 0.40 0.35 0.27 0.26 0.24 0.23 0.20
0.05 0.07 0.09 0.08 0.07 0.07 0.07 0.07 0.07 0.08 0.11 0.14 0.18 0.22 0.28 0.27 0.26 0.30 0.24 0.25 0.29 0.29 0.27 0.25 0.25 0.27 0.31 0.32 0.29 0.26 0.27 0.33 0.42 0.45 0.45 0.40 0.33 0.41 0.35 0.28 0.30 0.32 0.34
0.01 0.01 0.02 0.03 0.04 0.03 0.04 0.04 0.04 0.04 0.04 0.05 0.05 0.06 0.11 0.15 0.16 0.17 0.16 0.17 0.24 0.26 0.24 0.22 0.20 0.19 0.22 0.26 0.27 0.25 0.26 0.26 0.28 0.36 0.49 0.50 0.41 0.38 0.38 0.36 0.40 0.52 0.48
0.01 0.00 0.01 0.01 0.01 0.02 0.02 0.03 0.04 0.03 0.03 0.02 0.02 0.02 0.04 0.08 0.10 0.11 0.12 0.15 0.18 0.21 0.19 0.16 0.13 0.13 0.14 0.16 0.20 0.23 0.27 0.32 0.35 0.36 0.42 0.53 0.57 0.51 0.47 0.47 0.51 0.62 0.61
0.00 0.01 0.00 0.00 0.01 0.01 0.01 0.02 0.02 0.02 0.02 0.02 0.01 0.01 0.01 0.02 0.06 0.10 0.15 0.18 0.19 0.20 0.19 0.16 0.14 0.11 0.11 0.13 0.16 0.20 0.25 0.32 0.41 0.49 0.50 0.49 0.61 0.69 0.64 0.63 0.62 0.66 0.70
0.00 0.00 0.00 0.00 0.01 0.01 0.01 0.01 0.01 0.01 0.01 0.00 0.00 0.00 0.00 0.00 0.01 0.03 0.08 0.14 0.19 0.20 0.20 0.18 0.16 0.11 0.09 0.10 0.12 0.14 0.19 0.27 0.37 0.53 0.68 0.70 0.65 0.63 0.62 0.62 0.63 0.68 0.78
0.00 0.00 0.00 0.00 0.00 0.00 0.00 0.00 0.00 0.00 0.00 0.00 0.00 0.00 0.00 0.01 0.01 0.01 0.01 0.03 0.09 0.15 0.18 0.18 0.17 0.15 0.13 0.11 0.10 0.11 0.13 0.18 0.23 0.36 0.59 0.77 0.90 0.82 0.64 0.55 0.54 0.62 0.76
0.00 0.00 0.00 0.00 0.00 0.00 0.00 0.00 0.00 0.00 0.00 0.00 0.00 0.00 0.01 0.02 0.03 0.03 0.03 0.03 0.04 0.08 0.13 0.17 0.19 0.18 0.16 0.14 0.12 0.12 0.13 0.13 0.16 0.23 0.33 0.46 0.66 0.82 0.87 0.74 0.61 0.61 0.69
0.00 0.00 0.00 0.00 0.00 0.00 0.00 0.00 0.00 0.00 0.00 0.01 0.01 0.01 0.01 0.02 0.03 0.04 0.05 0.06 0.06 0.07 0.13 0.19 0.21 0.20 0.18 0.12 0.13 0.16 0.14 0.15 0.15 0.18 0.22 0.25 0.33 0.46 0.62 0.74 0.79 0.75 0.70
0.00 0.00 0.00 0.00 0.00 0.00 0.00 0.00 0.00 0.00 0.01 0.01 0.02 0.02 0.03 0.04 0.05 0.05 0.05 0.07 0.08 0.12 0.15 0.19 0.23 0.23 0.17 0.12 0.11 0.13 0.16 0.20 0.24 0.24 0.22 0.20 0.20 0.24 0.34 0.47 0.60 0.74 0.77
0.00 0.00 0.00 0.00 0.00 0.00 0.00 0.01 0.01 0.01 0.01 0.01 0.02 0.02 0.04 0.06 0.07 0.07 0.08 0.11 0.14 0.17 0.18 0.19 0.27 0.31 0.30 0.21 0.13 0.10 0.15 0.21 0.26 0.30 0.31 0.21 0.14 0.17 0.21 0.28 0.37 0.46 0.57
0.00 0.00 0.00 0.00 0.00 0.00 0.00 0.01 0.01 0.01 0.02 0.02 0.02 0.04 0.06 0.07 0.09 0.12 0.15 0.18 0.21 0.21 0.21 0.22 0.27 0.36 0.36 0.30 0.21 0.14 0.16 0.23 0.26 0.30 0.31 0.28 0.22 0.20 0.22 0.24 0.25 0.28 0.33
0.00 0.00 0.00 0.00 0.00 0.00 0.01 0.01 0.02 0.02 0.02 0.03 0.05 0.07 0.09 0.13 0.16 0.18 0.22 0.25 0.27 0.24 0.23 0.23 0.26 0.35 0.40 0.35 0.25 0.21 0.22 0.26 0.28 0.30 0.32 0.33 0.28 0.21 0.19 0.23 0.24 0.24 0.26
0.00 0.00 0.00 0.00 0.00 0.02 0.03 0.03 0.04 0.05 0.06 0.07 0.08 0.10 0.14 0.19 0.23 0.27 0.31 0.33 0.34 0.29 0.26 0.22 0.25 0.30 0.42 0.41 0.28 0.24 0.26 0.30 0.34 0.42 0.45 0.41 0.37 0.30 0.19 0.21 0.23 0.21 0.22
0.00 0.00 0.00 0.00 0.01 0.03 0.06 0.08 0.09 0.10 0.10 0.11 0.11 0.13 0.17 0.22 0.24 0.28 0.31 0.34 0.34 0.33 0.31 0.28 0.28 0.30 0.35 0.41 0.31 0.26 0.30 0.35 0.43 0.51 0.59 0.54 0.44 0.33 0.24 0.21 0.22 0.19 0.23
0.00 0.00 0.00 0.01 0.02 0.05 0.09 0.12 0.13 0.11 0.11 0.12 0.13 0.15 0.16 0.17 0.17 0.24 0.28 0.32 0.36 0.35 0.33 0.31 0.30 0.32 0.29 0.28 0.31 0.23 0.22 0.30 0.44 0.57 0.73 0.75 0.63 0.47 0.33 0.27 0.24 0.21 0.21
0.00 0.00 0.00 0.02 0.03 0.06 0.11 0.13 0.12 0.12 0.12 0.13 0.14 0.14 0.15 0.17 0.22 0.29 0.31 0.33 0.36 0.34 0.30 0.27 0.31 0.35 0.34 0.26 0.22 0.19 0.14 0.19 0.38 0.55 0.78 0.87 0.76 0.63 0.49 0.39 0.34 0.28 0.23
0.00 0.01 0.02 0.05 0.06 0.07 0.08 0.10 0.11 0.14 0.17 0.18 0.17 0.17 0.19 0.21 0.26 0.34 0.37 0.40 0.39 0.34 0.28 0.25 0.31 0.33 0.34 0.29 0.25 0.24 0.18 0.19 0.33 0.41 0.55 0.71 0.78 0.72 0.66 0.55 0.43 0.35 0.30
0.01 0.03 0.06 0.09 0.09 0.08 0.07 0.08 0.12 0.20 0.25 0.25 0.23 0.22 0.23 0.25 0.27 0.32 0.36 0.33 0.33 0.26 0.22 0.24 0.31 0.34 0.34 0.28 0.23 0.30 0.32 0.31 0.36 0.38 0.51 0.67 0.78 0.79 0.76 0.71 0.60 0.47 0.42
0.04 0.08 0.12 0.13 0.11 0.08 0.07 0.09 0.15 0.24 0.33 0.32 0.26 0.24 0.24 0.28 0.30 0.30 0.31 0.25 0.16 0.13 0.12 0.12 0.17 0.21 0.19 0.12 0.09 0.14 0.19 0.20 0.22 0.28 0.46 0.62 0.75 0.84 0.84 0.83 0.75 0.62 0.52

GEFSMW_prec_meanprecacc_048.txt.gz
Total_Precipitation_Accumulation
0.64 0.86 1.18 1.56 2.07 2.66 3.12 3.14 2.52 2.02 1.72 1.43 1.07 0.91 0.88 0.80 0.71 0.69 0.64 0.61 0.56 0.52 0.47 0.41 0.40 0.36 0.35 0.37 0.39 0.46 0.54 0.58 0.65 0.73 0.70 0.63 0.59 0.57 0.54 0.50 0.46 0.47 0.57
0.86 1.14 1.48 1.63 1.54 1.66 1.75 1.38 1.10 0.92 0.78 0.68 0.51 0.41 0.37 0.35 0.34 0.35 0.35 0.33 0.37 0.40 0.39 0.37 0.36 0.35 0.33 0.32 0.34 0.39 0.43 0.46 0.53 0.59 0.58 0.52 0.49 0.48 0.41 0.45 0.43 0.42 0.55
1.40 1.55 1.37 1.16 1.07 1.04 0.90 0.61 0.47 0.47 0.42 0.33 0.25 0.22 0.21 0.21 0.21 0.22 0.22 0.22 0.23 0.26 0.29 0.33 0.36 0.35 0.31 0.29 0.31 0.32 0.33 0.33 0.37 0.47 0.52 0.46 0.40 0.35 0.34 0.37 0.38 0.41 0.49
1.61 1.40 0.75 0.48 0.46 0.47 0.48 0.51 0.52 0.41 0.30 0.26 0.19 0.15 0.13 0.13 0.13 0.15 0.15 0.17 0.16 0.16 0.18 0.24 0.29 0.30 0.31 0.30 0.24 0.25 0.30 0.30 0.26 0.31 0.39 0.36 0.36 0.40 0.37 0.35 0.38 0.43 0.42
0.84 0.47 0.19 0.13 0.18 0.28 0.47 0.68 0.67 0.46 0.31 0.27 0.23 0.21 0.19 0.18 0.17 0.17 0.18 0.20 0.20 0.20 0.17 0.17 0.22 0.27 0.33 0.38 0.34 0.32 0.30 0.28 0.25 0.25 0.32 0.33 0.28 0.33 0.39 0.37 0.37 0.39 0.32
0.32 0.16 0.10 0.14 0.21 0.26 0.33 0.42 0.50 0.57 0.51 0.46 0.37 0.34 0.33 0.31 0.28 0.26 0.25 0.25 0.26 0.28 0.27 0.27 0.30 0.33 0.33 0.34 0.36 0.39 0.38 0.36 0.32 0.25 0.28 0.41 0.38 0.27 0.32 0.33 0.37 0.37 0.25
0.16 0.18 0.19 0.22 0.19 0.16 0.15 0.16 0.19 0.30 0.36 0.40 0.42 0.42 0.41 0.36 0.32 0.28 0.24 0.27 0.25 0.27 0.29 0.29 0.33 0.37 0.37 0.34 0.32 0.33 0.38 0.44 0.44 0.34 0.27 0.30 0.41 0.36 0.30 0.30 0.29 0.32 0.32
0.05 0.07 0.09 0.08 0.07 0.07 0.07 0.07 0.07 0.08 0.11 0.14 0.18 0.22 0.28 0.27 0.26 0.30 0.24 0.25 0.29 0.29 0.27 0.25 0.25 0.28 0.31 0.32 0.29 0.26 0.27 0.34 0.43 0.45 0.45 0.41 0.34 0.42 0.36 0.30 0.32 0.37 0.42
0.01 0.01 0.02 0.03 0.04 0.03 0.04 0.04 0.04 0.04 0.04 0.05 0.05 0.06 0.11 0.15 0.16 0.17 0.16 0.17 0.24 0.26 0.24 0.22 0.20 0.19 0.22 0.26 0.27 0.25 0.26 0.26 0.28 0.36 0.49 0.51 0.41 0.38 0.39 0.38 0.42 0.56 0.53
0.01 0.00 0.01 0.01 0.01 0.02 0.02 0.03 0.04 0.03 0.03 0.02 0.02 0.02 0.04 0.08 0.10 0.11 0.12 0.15 0.18 0.21 0.19 0.16 0.14 0.13 0.14 0.16 0.21 0.24 0.27 0.32 0.35 0.36 0.42 0.53 0.58 0.51 0.48 0.48 0.53 0.65 0.65
0.00 0.01 0.00 0.00 0.01 0.01 0.01 0.02 0.02 0.02 0.02 0.02 0.01 0.01 0.01 0.02 0.06 0.10 0.15 0.18 0.19 0.20 0.19 0.16 0.14 0.11 0.11 0.13 0.17 0.20 0.26 0.32 0.41 0.50 0.50 0.49 0.61 0.69 0.64 0.63 0.63 0.68 0.73
0.00 0.00 0.00 0.00 0.01 0.01 0.01 0.01 0.01 0.01 0.01 0.00 0.00 0.00 0.00 0.00 0.01 0.03 0.08 0.14 0.19 0.21 0.20 0.19 0.16 0.11 0.09 0.11 0.13 0.15 0.19 0.28 0.38 0.53 0.69 0.70 0.65 0.63 0.63 0.62 0.64 0.69 0.80
0.00 0.00 0.00 0.00 0.00 0.00 0.00 0.00 0.00 0.00 0.00 0.00 0.00 0.00 0.00 0.01 0.01 0.01 0.01 0.04 0.09 0.15 0.18 0.18 0.17 0.15 0.13 0.12 0.10 0.11 0.13 0.18 0.24 0.37 0.59 0.77 0.91 0.83 0.65 0.56 0.54 0.62 0.77
0.00 0.00 0.00 0.00 0.00 0.00 0.00 0.00 0.00 0.00 0.00 0.00 0.00 0.00 0.01 0.02 0.03 0.03 0.03 0.03 0.04 0.08 0.13 0.18 0.19 0.18 0.16 0.14 0.12 0.13 0.13 0.14 0.17 0.24 0.34 0.47 0.67 0.83 0.87 0.75 0.62 0.61 0.69
0.00 0.00 0.00 0.00 0.00 0.00 0.00 0.00 0.00 0.00 0.00 0.01 0.01 0.01 0.01 0.02 0.03 0.04 0.05 0.06 0.07 0.07 0.13 0.19 0.21 0.20 0.18 0.13 0.13 0.16 0.14 0.16 0.16 0.19 0.23 0.25 0.33 0.46 0.62 0.75 0.79 0.76 0.70
0.00 0.00 0.00 0.00 0.00 0.00 0.00 0.00 0.00 0.00 0.01 0.01 0.02 0.02 0.03 0.04 0.05 0.05 0.06 0.07 0.09 0.12 0.15 0.19 0.23 0.23 0.17 0.12 0.11 0.13 0.16 0.21 0.24 0.25 0.24 0.21 0.20 0.25 0.34 0.47 0.60 0.75 0.78
0.00 0.00 0.00 0.00 0.00 0.00 0.00 0.01 0.01 0.01 0.01 0.01 0.02 0.02 0.04 0.06 0.07 0.07 0.08 0.11 0.14 0.17 0.18 0.20 0.27 0.31 0.30 0.21 0.13 0.10 0.15 0.21 0.26 0.31 0.33 0.22 0.14 0.17 0.21 0.28 0.37 0.46 0.57
0.00 0.00 0.00 0.00 0.00 0.00 0.00 0.01 0.01 0.01 0.02 0.02 0.02 0.04 0.06 0.08 0.09 0.12 0.15 0.18 0.21 0.21 0.21 0.22 0.27 0.36 0.37 0.30 0.21 0.14 0.16 0.23 0.26 0.31 0.33 0.30 0.23 0.21 0.22 0.25 0.26 0.29 0.33
0.00 0.00 0.00 0.00 0.00 0.00 0.01 0.01 0.02 0.02 0.02 0.03 0.05 0.07 0.09 0.13 0.16 0.18 0.22 0.25 0.27 0.25 0.23 0.23 0.26 0.35 0.40 0.35 0.25 0.21 0.22 0.26 0.29 0.31 0.34 0.34 0.30 0.22 0.19 0.24 0.25 0.25 0.27
0.00 0.00 0.00 0.00 0.00 0.02 0.03 0.03 0.04 0.05 0.06 0.07 0.08 0.10 0.14 0.19 0.23 0.27 0.31 0.33 0.34 0.30 0.26 0.22 0.25 0.31 0.42 0.42 0.28 0.24 0.26 0.30 0.34 0.43 0.46 0.42 0.37 0.31 0.19 0.21 0.24 0.23 0.23
0.00 0.00 0.00 0.00 0.01 0.03 0.06 0.08 0.09 0.10 0.10 0.11 0.11 0.13 0.17 0.22 0.24 0.28 0.31 0.34 0.34 0.33 0.31 0.28 0.28 0.30 0.35 0.41 0.31 0.26 0.30 0.35 0.43 0.52 0.60 0.56 0.44 0.33 0.24 0.21 0.23 0.21 0.25
0.00 0.00 0.00 0.01 0.02 0.05 0.09 0.12 0.13 0.11 0.11 0.12 0.13 0.15 0.16 0.17 0.17 0.24 0.28 0.33 0.36 0.36 0.33 0.32 0.31 0.32 0.30 0.28 0.31 0.23 0.22 0.30 0.45 0.58 0.74 0.76 0.63 0.47 0.34 0.27 0.24 0.21 0.22
0.00 0.00 0.00 0.02 0.04 0.06 0.11 0.13 0.12 0.12 0.12 0.13 0.14 0.14 0.15 0.17 0.22 0.29 0.31 0.33 0.36 0.35 0.30 0.27 0.31 0.35 0.35 0.27 0.22 0.19 0.14 0.19 0.38 0.55 0.79 0.88 0.76 0.63 0.49 0.39 0.34 0.28 0.24
0.00 0.01 0.02 0.05 0.06 0.07 0.08 0.10 0.11 0.14 0.17 0.18 0.17 0.17 0.19 0.21 0.26 0.34 0.37 0.40 0.39 0.34 0.28 0.25 0.31 0.34 0.35 0.30 0.27 0.25 0.19 0.20 0.34 0.42 0.56 0.71 0.78 0.72 0.66 0.56 0.44 0.35 0.31
0.02 0.03 0.06 0.09 0.09 0.08 0.07 0.08 0.12 0.20 0.25 0.25 0.23 0.22 0.23 0.25 0.27 0.32 0.36 0.33 0.33 0.26 0.23 0.24 0.31 0.35 0.35 0.29 0.23 0.30 0.32 0.32 0.36 0.39 0.52 0.69 0.80 0.82 0.79 0.75 0.64 0.51 0.45
0.04 0.08 0.12 0.13 0.11 0.09 0.08 0.09 0.16 0.25 0.33 0.32 0.26 0.24 0.24 0.28 0.30 0.30 0.31 0.25 0.16 0.13 0.12 0.12 0.17 0.21 0.19 0.12 0.09 0.14 0.19 0.21 0.23 0.29 0.47 0.64 0.79 0.89 0.90 0.89 0.82 0.69 0.58

GEFSMW_prec_meanprecacc_054.txt.gz
Total_Precipitation_Accumulation
0.79 0.98 1.26 1.65 2.10 2.67 3.13 3.15 2.53 2.03 1.72 1.44 1.08 0.91 0.89 0.80 0.71 0.69 0.64 0.61 0.56 0.52 0.47 0.41 0.40 0.37 0.36 0.38 0.40 0.47 0.55 0.59 0.66 0.74 0.71 0.64 0.59 0.58 0.56 0.53 0.50 0.50 0.61
1.05 1.26 1.53 1.66 1.56 1.67 1.76 1.38 1.11 0.93 0.79 0.68 0.52 0.42 0.38 0.36 0.34 0.35 0.35 0.33 0.37 0.40 0.39 0.37 0.36 0.35 0.34 0.33 0.36 0.41 0.44 0.47 0.54 0.60 0.58 0.52 0.50 0.52 0.45 0.50 0.49 0.48 0.62
1.49 1.62 1.40 1.17 1.07 1.04 0.90 0.62 0.48 0.48 0.43 0.34 0.26 0.23 0.21 0.21 0.21 0.22 0.22 0.22 0.23 0.26 0.29 0.33 0.36 0.35 0.31 0.30 0.32 0.34 0.35 0.35 0.38 0.47 0.52 0.47 0.42 0.38 0.38 0.43 0.46 0.50 0.58
1.65 1.44 0.77 0.48 0.46 0.47 0.48 0.52 0.53 0.43 0.32 0.27 0.20 0.15 0.13 0.13 0.13 0.15 0.15 0.17 0.16 0.16 0.18 0.24 0.29 0.30 0.31 0.31 0.25 0.25 0.31 0.31 0.28 0.31 0.39 0.37 0.38 0.42 0.40 0.39 0.45 0.52 0.51
0.84 0.48 0.19 0.13 0.18 0.28 0.47 0.68 0.70 0.49 0.33 0.28 0.24 0.22 0.20 0.18 0.17 0.17 0.18 0.20 0.20 0.20 0.17 0.17 0.22 0.27 0.33 0.38 0.34 0.32 0.30 0.29 0.26 0.26 0.33 0.34 0.30 0.35 0.41 0.39 0.40 0.44 0.38
0.32 0.16 0.10 0.14 0.21 0.26 0.33 0.43 0.52 0.59 0.52 0.47 0.37 0.34 0.33 0.31 0.28 0.26 0.25 0.25 0.26 0.28 0.27 0.27 0.30 0.33 0.33 0.34 0.36 0.39 0.38 0.36 0.33 0.26 0.29 0.42 0.39 0.29 0.34 0.35 0.38 0.39 0.28
0.16 0.18 0.19 0.22 0.19 0.16 0.15 0.16 0.20 0.31 0.37 0.40 0.42 0.42 0.41 0.37 0.32 0.28 0.24 0.27 0.25 0.27 0.29 0.29 0.33 0.37 0.37 0.34 0.32 0.33 0.38 0.45 0.45 0.35 0.27 0.30 0.42 0.37 0.31 0.31 0.30 0.33 0.33
0.05 0.07 0.09 0.08 0.07 0.07 0.07 0.07 0.07 0.09 0.12 0.14 0.18 0.22 0.28 0.27 0.26 0.30 0.24 0.25 0.29 0.29 0.27 0.25 0.25 0.28 0.31 0.32 0.30 0.26 0.27 0.34 0.43 0.45 0.46 0.41 0.35 0.42 0.37 0.31 0.33 0.38 0.43
0.01 0.01 0.02 0.03 0.04 0.03 0.04 0.04 0.04 0.04 0.04 0.05 0.05 0.06 0.11 0.15 0.16 0.17 0.16 0.17 0.24 0.26 0.24 0.22 0.20 0.20 0.23 0.26 0.27 0.26 0.27 0.27 0.28 0.36 0.49 0.51 0.41 0.38 0.39 0.38 0.42 0.56 0.54
0.01 0.00 0.01 0.01 0.01 0.02 0.02 0.03 0.04 0.03 0.03 0.02 0.02 0.02 0.04 0.08 0.10 0.11 0.12 0.15 0.18 0.21 0.20 0.17 0.14 0.14 0.15 0.17 0.22 0.25 0.28 0.33 0.36 0.37 0.43 0.54 0.58 0.51 0.48 0.48 0.53 0.65 0.66
0.00 0.01 0.00 0.00 0.01 0.01 0.01 0.02 0.02 0.02 0.02 0.02 0.01 0.01 0.01 0.02 0.06 0.11 0.15 0.18 0.20 0.20 0.19 0.17 0.15 0.12 0.12 0.15 0.18 0.21 0.27 0.33 0.42 0.51 0.51 0.50 0.61 0.69 0.65 0.63 0.63 0.68 0.74
0.00 0.00 0.00 0.00 0.01 0.01 0.01 0.01 0.01 0.01 0.01 0.00 0.00 0.00 0.00 0.00 0.01 0.03 0.08 0.14 0.20 0.21 0.21 0.20 0.17 0.12 0.10 0.12 0.14 0.16 0.20 0.29 0.39 0.54 0.71 0.71 0.66 0.65 0.64 0.63 0.64 0.70 0.81
0.00 0.00 0.00 0.00 0.00 0.00 0.00 0.00 0.00 0.00 0.00 0.00 0.00 0.00 0.00 0.01 0.01 0.01 0.01 0.04 0.10 0.16 0.19 0.19 0.18 0.16 0.14 0.13 0.11 0.12 0.15 0.19 0.25 0.38 0.61 0.79 0.93 0.85 0.67 0.58 0.56 0.63 0.78
0.00 0.00 0.00 0.00 0.00 0.00 0.00 0.00 0.00 0.00 0.00 0.00 0.00 0.00 0.01 0.02 0.03 0.03 0.03 0.03 0.04 0.09 0.14 0.18 0.20 0.18 0.16 0.14 0.13 0.14 0.15 0.16 0.19 0.26 0.36 0.49 0.69 0.86 0.91 0.77 0.64 0.64 0.71
0.00 0.00 0.00 0.00 0.00 0.00 0.00 0.00 0.00 0.00 0.00 0.01 0.01 0.01 0.01 0.02 0.03 0.04 0.05 0.06 0.07 0.08 0.13 0.19 0.21 0.20 0.18 0.13 0.14 0.17 0.15 0.17 0.17 0.20 0.25 0.28 0.36 0.48 0.64 0.76 0.81 0.78 0.72
0.00 0.00 0.00 0.00 0.00 0.00 0.00 0.00 0.00 0.00 0.01 0.01 0.02 0.02 0.03 0.04 0.05 0.05 0.06 0.07 0.09 0.12 0.15 0.19 0.24 0.24 0.17 0.12 0.11 0.13 0.17 0.21 0.25 0.26 0.26 0.23 0.22 0.25 0.35 0.47 0.60 0.75 0.79
0.00 0.00 0.00 0.00 0.00 0.00 0.00 0.01 0.01 0.01 0.01 0.01 0.02 0.02 0.04 0.06 0.07 0.07 0.09 0.11 0.14 0.17 0.18 0.20 0.27 0.31 0.31 0.21 0.13 0.10 0.15 0.21 0.26 0.32 0.35 0.24 0.15 0.19 0.24 0.31 0.38 0.46 0.57
0.00 0.00 0.00 0.00 0.00 0.00 0.00 0.01 0.01 0.01 0.02 0.02 0.02 0.04 0.06 0.08 0.09 0.12 0.15 0.18 0.21 0.21 0.22 0.22 0.27 0.37 0.37 0.30 0.21 0.14 0.16 0.23 0.27 0.32 0.35 0.33 0.27 0.25 0.27 0.30 0.30 0.32 0.36
0.00 0.00 0.00 0.00 0.00 0.00 0.01 0.01 0.02 0.02 0.02 0.03 0.05 0.07 0.09 0.13 0.16 0.18 0.22 0.25 0.27 0.25 0.24 0.23 0.27 0.36 0.42 0.35 0.25 0.21 0.23 0.26 0.29 0.32 0.36 0.39 0.36 0.27 0.20 0.25 0.26 0.27 0.29
0.00 0.00 0.00 0.00 0.00 0.02 0.03 0.03 0.04 0.05 0.06 0.07 0.08 0.10 0.14 0.19 0.23 0.27 0.31 0.33 0.34 0.30 0.26 0.22 0.26 0.32 0.44 0.42 0.28 0.24 0.26 0.30 0.34 0.45 0.49 0.44 0.39 0.32 0.20 0.22 0.26 0.25 0.25
0.00 0.00 0.00 0.00 0.01 0.03 0.06 0.08 0.09 0.10 0.10 0.11 0.11 0.13 0.17 0.22 0.24 0.28 0.31 0.34 0.34 0.33 0.32 0.29 0.28 0.31 0.37 0.42 0.31 0.26 0.30 0.36 0.44 0.53 0.63 0.60 0.46 0.33 0.24 0.22 0.24 0.22 0.26
0.00 0.00 0.00 0.01 0.02 0.05 0.09 0.12 0.13 0.11 0.11 0.12 0.13 0.15 0.16 0.17 0.17 0.25 0.28 0.33 0.36 0.36 0.33 0.33 0.32 0.34 0.31 0.30 0.32 0.23 0.22 0.31 0.45 0.58 0.75 0.79 0.64 0.47 0.34 0.27 0.24 0.21 0.22
0.00 0.00 0.01 0.02 0.04 0.06 0.11 0.13 0.12 0.12 0.12 0.13 0.14 0.15 0.15 0.17 0.22 0.29 0.31 0.33 0.36 0.35 0.30 0.28 0.32 0.36 0.36 0.30 0.24 0.19 0.14 0.19 0.38 0.55 0.79 0.89 0.76 0.63 0.49 0.39 0.34 0.28 0.24
0.00 0.01 0.02 0.05 0.06 0.07 0.08 0.10 0.11 0.14 0.17 0.18 0.18 0.18 0.19 0.21 0.26 0.35 0.38 0.40 0.39 0.34 0.28 0.26 0.31 0.34 0.36 0.34 0.34 0.32 0.23 0.22 0.35 0.43 0.57 0.72 0.78 0.72 0.66 0.56 0.44 0.36 0.32
0.02 0.03 0.06 0.09 0.09 0.08 0.07 0.08 0.13 0.20 0.27 0.27 0.25 0.24 0.25 0.27 0.29 0.33 0.37 0.33 0.34 0.26 0.23 0.24 0.32 0.35 0.36 0.31 0.25 0.32 0.35 0.35 0.39 0.41 0.54 0.71 0.83 0.85 0.82 0.79 0.68 0.55 0.48
0.04 0.08 0.12 0.13 0.11 0.09 0.08 0.09 0.16 0.26 0.36 0.35 0.29 0.26 0.26 0.29 0.31 0.31 0.32 0.26 0.17 0.13 0.12 0.13 0.17 0.21 0.19 0.13 0.09 0.14 0.19 0.21 0.23 0.29 0.47 0.64 0.81 0.93 0.96 0.97 0.90 0.78 0.67

GEFSMW_prec_meanprecacc_060.txt.gz
Total_Precipitation_Accumulation
1.09 1.29 1.51 1.84 2.24 2.77 3.20 3.17 2.54 2.03 1.72 1.44 1.08 0.91 0.89 0.80 0.71 0.69 0.64 0.61 0.56 0.52 0.47 0.41 0.40 0.37 0.36 0.38 0.40 0.47 0.55 0.59 0.66 0.74 0.71 0.64 0.59 0.58 0.57 0.54 0.51 0.52 0.63
1.25 1.53 1.80 1.87 1.66 1.74 1.79 1.40 1.11 0.93 0.79 0.69 0.52 0.42 0.38 0.36 0.34 0.35 0.35 0.33 0.37 0.40 0.39 0.37 0.36 0.35 0.34 0.33 0.36 0.41 0.44 0.47 0.54 0.60 0.58 0.52 0.50 0.52 0.45 0.51 0.51 0.50 0.65
1.62 1.86 1.70 1.33 1.14 1.07 0.92 0.62 0.48 0.48 0.43 0.34 0.26 0.23 0.21 0.21 0.21 0.22 0.22 0.22 0.23 0.26 0.29 0.33 0.36 0.35 0.31 0.30 0.32 0.34 0.35 0.35 0.38 0.47 0.53 0.47 0.42 0.38 0.39 0.43 0.47 0.53 0.60
1.71 1.53 0.95 0.55 0.48 0.48 0.48 0.52 0.53 0.44 0.33 0.28 0.20 0.15 0.13 0.13 0.13 0.15 0.15 0.17 0.16 0.16 0.18 0.24 0.29 0.30 0.31 0.31 0.25 0.26 0.31 0.31 0.28 0.31 0.39 0.37 0.38 0.42 0.40 0.39 0.45 0.53 0.51
0.87 0.51 0.24 0.15 0.19 0.29 0.47 0.69 0.70 0.49 0.34 0.29 0.24 0.22 0.20 0.18 0.17 0.17 0.18 0.20 0.20 0.20 0.17 0.17 0.22 0.27 0.33 0.38 0.34 0.32 0.30 0.29 0.26 0.26 0.33 0.34 0.30 0.35 0.41 0.39 0.40 0.44 0.38
0.33 0.17 0.11 0.15 0.22 0.27 0.34 0.43 0.52 0.59 0.53 0.47 0.37 0.34 0.33 0.31 0.28 0.26 0.25 0.25 0.26 0.28 0.27 0.27 0.30 0.33 0.33 0.34 0.36 0.39 0.38 0.36 0.33 0.26 0.29 0.42 0.39 0.29 0.34 0.35 0.38 0.39 0.28
0.16 0.18 0.19 0.22 0.20 0.16 0.15 0.16 0.20 0.31 0.37 0.40 0.42 0.42 0.41 0.37 0.32 0.28 0.24 0.27 0.25 0.27 0.29 0.29 0.33 0.37 0.37 0.34 0.32 0.33 0.38 0.45 0.45 0.35 0.27 0.30 0.42 0.37 0.31 0.31 0.30 0.33 0.33
0.05 0.07 0.09 0.08 0.07 0.07 0.07 0.07 0.07 0.09 0.12 0.14 0.18 0.22 0.28 0.27 0.26 0.30 0.24 0.25 0.29 0.29 0.27 0.25 0.25 0.28 0.31 0.32 0.30 0.26 0.27 0.34 0.43 0.45 0.46 0.41 0.35 0.42 0.37 0.31 0.33 0.38 0.43
0.01 0.01 0.02 0.03 0.04 0.03 0.04 0.04 0.04 0.04 0.04 0.05 0.05 0.06 0.11 0.15 0.16 0.17 0.16 0.17 0.24 0.26 0.24 0.22 0.20 0.20 0.23 0.26 0.27 0.26 0.27 0.27 0.28 0.36 0.49 0.51 0.41 0.38 0.39 0.38 0.43 0.56 0.54
0.01 0.00 0.01 0.01 0.01 0.02 0.02 0.03 0.04 0.03 0.03 0.02 0.02 0.02 0.04 0.08 0.10 0.11 0.12 0.15 0.18 0.21 0.20 0.17 0.14 0.14 0.15 0.17 0.22 0.25 0.28 0.33 0.36 0.37 0.43 0.54 0.58 0.51 0.48 0.48 0.53 0.66 0.66
0.00 0.01 0.00 0.00 0.01 0.01 0.01 0.02 0.02 0.02 0.02 0.02 0.01 0.01 0.01 0.02 0.06 0.11 0.15 0.18 0.20 0.20 0.20 0.17 0.15 0.12 0.12 0.15 0.18 0.21 0.27 0.33 0.42 0.51 0.51 0.50 0.62 0.69 0.65 0.63 0.64 0.68 0.74
0.00 0.00 0.00 0.00 0.01 0.01 0.01 0.01 0.01 0.01 0.01 0.00 0.00 0.00 0.00 0.00 0.01 0.03 0.08 0.14 0.20 0.21 0.21 0.20 0.17 0.12 0.10 0.12 0.14 0.16 0.21 0.29 0.39 0.55 0.71 0.71 0.66 0.65 0.64 0.63 0.64 0.70 0.81
0.00 0.00 0.00 0.00 0.00 0.00 0.00 0.00 0.00 0.00 0.00 0.00 0.00 0.00 0.00 0.01 0.01 0.01 0.01 0.04 0.10 0.16 0.19 0.19 0.18 0.16 0.14 0.13 0.11 0.12 0.15 0.19 0.25 0.38 0.61 0.80 0.93 0.85 0.67 0.58 0.56 0.64 0.78
0.00 0.00 0.00 0.00 0.00 0.00 0.00 0.00 0.00 0.00 0.00 0.00 0.00 0.00 0.01 0.02 0.03 0.03 0.03 0.03 0.04 0.09 0.14 0.18 0.20 0.18 0.16 0.14 0.13 0.14 0.15 0.16 0.19 0.26 0.36 0.49 0.69 0.86 0.91 0.78 0.65 0.64 0.71
0.00 0.00 0.00 0.00 0.00 0.00 0.00 0.00 0.00 0.00 0.00 0.01 0.01 0.01 0.01 0.02 0.03 0.04 0.05 0.06 0.07 0.08 0.13 0.19 0.21 0.20 0.18 0.13 0.14 0.17 0.15 0.17 0.18 0.20 0.25 0.28 0.36 0.49 0.64 0.76 0.81 0.78 0.73
0.00 0.00 0.00 0.00 0.00 0.00 0.00 0.00 0.00 0.00 0.01 0.01 0.02 0.02 0.03 0.04 0.05 0.05 0.06 0.07 0.09 0.12 0.15 0.19 0.24 0.24 0.17 0.12 0.11 0.13 0.17 0.21 0.25 0.26 0.26 0.23 0.22 0.25 0.35 0.47 0.61 0.75 0.79
0.00 0.00 0.00 0.00 0.00 0.00 0.00 0.01 0.01 0.01 0.01 0.01 0.02 0.02 0.04 0.06 0.07 0.07 0.09 0.11 0.14 0.17 0.18 0.20 0.27 0.31 0.31 0.21 0.13 0.10 0.15 0.21 0.26 0.32 0.35 0.24 0.15 0.20 0.25 0.31 0.38 0.47 0.57
0.00 0.00 0.00 0.00 0.00 0.00 0.00 0.01 0.01 0.01 0.02 0.02 0.02 0.04 0.06 0.08 0.10 0.12 0.15 0.18 0.21 0.21 0.22 0.22 0.27 0.37 0.37 0.30 0.21 0.14 0.16 0.23 0.27 0.32 0.35 0.33 0.27 0.26 0.27 0.30 0.30 0.32 0.36
0.01 0.01 0.01 0.01 0.02 0.03 0.03 0.03 0.03 0.03 0.03 0.03 0.05 0.07 0.10 0.13 0.16 0.19 0.22 0.26 0.27 0.25 0.24 0.23 0.27 0.36 0.42 0.35 0.25 0.21 0.23 0.26 0.29 0.32 0.36 0.39 0.36 0.27 0.20 0.25 0.26 0.27 0.30
0.02 0.01 0.02 0.02 0.02 0.03 0.04 0.05 0.06 0.06 0.07 0.08 0.10 0.11 0.15 0.21 0.24 0.27 0.32 0.33 0.34 0.30 0.26 0.22 0.26 0.32 0.44 0.42 0.28 0.24 0.26 0.30 0.34 0.45 0.49 0.44 0.39 0.32 0.20 0.22 0.26 0.25 0.25
0.02 0.02 0.02 0.02 0.03 0.04 0.07 0.10 0.11 0.12 0.12 0.13 0.14 0.16 0.21 0.25 0.27 0.30 0.32 0.35 0.34 0.33 0.32 0.29 0.28 0.31 0.37 0.42 0.31 0.26 0.30 0.36 0.44 0.53 0.63 0.60 0.46 0.33 0.24 0.22 0.25 0.22 0.26
0.02 0.02 0.03 0.05 0.06 0.07 0.12 0.15 0.15 0.15 0.16 0.17 0.18 0.19 0.21 0.21 0.20 0.27 0.30 0.34 0.37 0.37 0.34 0.33 0.32 0.34 0.31 0.30 0.33 0.23 0.23 0.31 0.46 0.58 0.75 0.79 0.64 0.47 0.34 0.27 0.24 0.21 0.22
0.01 0.01 0.02 0.04 0.06 0.09 0.15 0.18 0.16 0.17 0.18 0.20 0.22 0.21 0.20 0.21 0.25 0.31 0.33 0.35 0.38 0.36 0.31 0.28 0.32 0.36 0.36 0.31 0.24 0.20 0.15 0.20 0.39 0.55 0.80 0.89 0.76 0.64 0.50 0.39 0.34 0.28 0.24
0.01 0.01 0.03 0.06 0.08 0.08 0.10 0.13 0.16 0.19 0.22 0.24 0.23 0.22 0.24 0.25 0.31 0.39 0.41 0.43 0.41 0.36 0.30 0.27 0.33 0.36 0.38 0.36 0.35 0.33 0.24 0.23 0.36 0.43 0.57 0.72 0.78 0.72 0.67 0.56 0.44 0.36 0.32
0.02 0.03 0.07 0.10 0.10 0.09 0.08 0.09 0.14 0.22 0.29 0.30 0.27 0.26 0.27 0.30 0.33 0.37 0.40 0.36 0.36 0.29 0.27 0.28 0.36 0.39 0.38 0.33 0.27 0.33 0.36 0.36 0.40 0.41 0.55 0.71 0.83 0.85 0.82 0.79 0.68 0.56 0.48
0.05 0.08 0.12 0.13 0.11 0.09 0.08 0.10 0.16 0.26 0.37 0.37 0.31 0.29 0.29 0.33 0.35 0.35 0.36 0.29 0.21 0.18 0.18 0.19 0.23 0.27 0.24 0.17 0.12 0.16 0.21 0.22 0.24 0.29 0.47 0.65 0.81 0.93 0.96 0.97 0.91 0.79 0.68

GEFSMW_prec_meanprecacc_066.txt.gz
Total_Precipitation_Accumulation
1.33 1.53 1.81 2.24 2.64 3.08 3.44 3.34 2.63 2.06 1.73 1.44 1.08 0.91 0.89 0.80 0.71 0.69 0.64 0.61 0.56 0.52 0.47 0.41 0.40 0.37 0.36 0.38 0.40 0.47 0.55 0.59 0.66 0.74 0.71 0.64 0.59 0.58 0.57 0.54 0.51 0.52 0.64
1.42 1.72 2.01 2.16 1.96 1.96 1.96 1.49 1.16 0.95 0.80 0.69 0.52 0.42 0.38 0.36 0.34 0.35 0.35 0.33 0.37 0.40 0.39 0.37 0.36 0.35 0.34 0.33 0.36 0.41 0.44 0.47 0.54 0.60 0.58 0.52 0.50 0.52 0.45 0.51 0.51 0.50 0.66
1.69 1.95 1.85 1.57 1.35 1.23 1.01 0.67 0.50 0.50 0.43 0.35 0.26 0.23 0.21 0.21 0.21 0.22 0.22 0.22 0.23 0.26 0.29 0.33 0.36 0.35 0.31 0.30 0.32 0.34 0.35 0.35 0.38 0.47 0.53 0.47 0.42 0.38 0.39 0.43 0.47 0.53 0.61
1.76 1.60 1.04 0.68 0.60 0.55 0.52 0.54 0.54 0.44 0.33 0.28 0.20 0.15 0.13 0.13 0.13 0.15 0.15 0.17 0.16 0.16 0.18 0.24 0.29 0.30 0.31 0.31 0.25 0.26 0.31 0.31 0.28 0.31 0.39 0.37 0.38 0.42 0.40 0.39 0.45 0.53 0.51
0.90 0.54 0.29 0.19 0.23 0.31 0.48 0.70 0.71 0.50 0.34 0.29 0.24 0.22 0.20 0.18 0.17 0.17 0.18 0.20 0.20 0.20 0.17 0.17 0.22 0.27 0.33 0.38 0.34 0.32 0.30 0.29 0.26 0.26 0.33 0.34 0.30 0.35 0.41 0.39 0.40 0.44 0.38
0.34 0.18 0.13 0.16 0.23 0.27 0.35 0.44 0.53 0.60 0.53 0.47 0.37 0.34 0.33 0.31 0.28 0.26 0.25 0.25 0.26 0.28 0.27 0.27 0.30 0.33 0.33 0.34 0.36 0.39 0.38 0.36 0.33 0.26 0.29 0.42 0.39 0.29 0.34 0.35 0.38 0.39 0.28
0.16 0.18 0.20 0.22 0.20 0.16 0.15 0.17 0.21 0.31 0.37 0.40 0.42 0.42 0.41 0.37 0.32 0.28 0.24 0.27 0.25 0.27 0.29 0.29 0.33 0.37 0.37 0.34 0.32 0.33 0.38 0.45 0.45 0.35 0.27 0.30 0.42 0.37 0.31 0.31 0.30 0.33 0.33
0.05 0.07 0.09 0.08 0.07 0.07 0.08 0.07 0.08 0.09 0.12 0.14 0.18 0.22 0.28 0.27 0.26 0.30 0.24 0.25 0.29 0.29 0.27 0.25 0.25 0.28 0.31 0.32 0.30 0.26 0.27 0.34 0.43 0.45 0.46 0.41 0.35 0.42 0.37 0.31 0.33 0.38 0.43
0.01 0.01 0.02 0.03 0.04 0.03 0.04 0.04 0.04 0.04 0.04 0.05 0.05 0.06 0.11 0.15 0.16 0.17 0.16 0.17 0.24 0.26 0.24 0.22 0.20 0.20 0.23 0.26 0.27 0.26 0.27 0.27 0.28 0.36 0.49 0.51 0.41 0.38 0.39 0.38 0.43 0.56 0.54
0.01 0.00 0.01 0.01 0.01 0.02 0.02 0.03 0.04 0.03 0.03 0.02 0.02 0.02 0.04 0.08 0.10 0.11 0.12 0.15 0.18 0.21 0.20 0.17 0.14 0.14 0.15 0.17 0.22 0.25 0.28 0.33 0.36 0.37 0.43 0.54 0.58 0.51 0.48 0.48 0.53 0.66 0.66
0.00 0.01 0.00 0.00 0.01 0.01 0.01 0.02 0.02 0.02 0.02 0.02 0.01 0.01 0.01 0.02 0.06 0.11 0.15 0.18 0.20 0.20 0.20 0.17 0.15 0.12 0.12 0.15 0.18 0.21 0.27 0.33 0.42 0.51 0.51 0.50 0.62 0.69 0.65 0.63 0.64 0.68 0.74
0.00 0.00 0.00 0.00 0.01 0.01 0.01 0.01 0.01 0.01 0.01 0.00 0.00 0.00 0.00 0.00 0.01 0.03 0.08 0.14 0.20 0.21 0.21 0.20 0.17 0.12 0.10 0.12 0.14 0.16 0.21 0.29 0.39 0.55 0.71 0.71 0.66 0.65 0.64 0.63 0.64 0.70 0.81
0.00 0.00 0.00 0.00 0.00 0.00 0.00 0.00 0.00 0.00 0.00 0.00 0.00 0.00 0.00 0.01 0.01 0.01 0.01 0.04 0.10 0.16 0.19 0.19 0.18 0.16 0.14 0.13 0.11 0.12 0.15 0.19 0.25 0.38 0.61 0.80 0.93 0.85 0.67 0.58 0.56 0.64 0.78
0.00 0.00 0.00 0.00 0.00 0.00 0.00 0.00 0.00 0.00 0.00 0.00 0.00 0.00 0.01 0.02 0.03 0.03 0.03 0.03 0.04 0.09 0.14 0.18 0.20 0.18 0.16 0.14 0.13 0.14 0.15 0.16 0.19 0.26 0.36 0.49 0.69 0.86 0.91 0.78 0.65 0.64 0.71
0.00 0.00 0.00 0.00 0.00 0.00 0.00 0.00 0.00 0.00 0.00 0.01 0.01 0.01 0.01 0.02 0.03 0.04 0.05 0.06 0.07 0.08 0.13 0.19 0.21 0.20 0.18 0.13 0.14 0.17 0.15 0.17 0.18 0.20 0.25 0.28 0.36 0.49 0.64 0.76 0.81 0.78 0.73
0.00 0.00 0.00 0.00 0.00 0.00 0.00 0.00 0.01 0.01 0.01 0.01 0.02 0.02 0.03 0.04 0.05 0.05 0.06 0.07 0.09 0.12 0.15 0.19 0.24 0.24 0.17 0.12 0.11 0.13 0.17 0.21 0.25 0.26 0.26 0.23 0.22 0.25 0.35 0.47 0.61 0.75 0.79
0.01 0.01 0.01 0.00 0.00 0.00 0.01 0.01 0.01 0.01 0.01 0.01 0.02 0.03 0.05 0.06 0.07 0.07 0.09 0.11 0.14 0.17 0.18 0.20 0.27 0.31 0.31 0.21 0.13 0.10 0.15 0.21 0.26 0.32 0.35 0.24 0.15 0.20 0.25 0.31 0.38 0.47 0.57
0.01 0.01 0.01 0.01 0.01 0.01 0.01 0.01 0.01 0.02 0.02 0.02 0.03 0.04 0.06 0.08 0.10 0.12 0.15 0.19 0.22 0.22 0.22 0.22 0.28 0.37 0.37 0.30 0.21 0.14 0.17 0.23 0.27 0.32 0.35 0.33 0.27 0.26 0.27 0.30 0.30 0.32 0.36
0.04 0.04 0.04 0.05 0.05 0.04 0.05 0.04 0.04 0.04 0.04 0.04 0.06 0.08 0.11 0.14 0.17 0.20 0.24 0.27 0.28 0.26 0.25 0.24 0.28 0.36 0.42 0.36 0.25 0.21 0.23 0.26 0.29 0.32 0.36 0.39 0.36 0.27 0.20 0.25 0.26 0.27 0.30
0.05 0.05 0.06 0.06 0.05 0.06 0.06 0.08 0.08 0.08 0.09 0.10 0.12 0.14 0.19 0.25 0.28 0.32 0.36 0.37 0.37 0.32 0.28 0.24 0.27 0.33 0.44 0.43 0.29 0.25 0.27 0.31 0.35 0.45 0.49 0.44 0.39 0.32 0.20 0.22 0.26 0.25 0.25
0.06 0.05 0.04 0.04 0.04 0.06 0.08 0.12 0.14 0.15 0.16 0.17 0.19 0.21 0.27 0.33 0.34 0.37 0.39 0.41 0.40 0.37 0.35 0.31 0.30 0.33 0.38 0.44 0.33 0.29 0.32 0.37 0.45 0.54 0.63 0.60 0.46 0.33 0.24 0.22 0.25 0.22 0.26
0.04 0.03 0.04 0.06 0.07 0.08 0.13 0.17 0.18 0.18 0.19 0.20 0.22 0.25 0.28 0.29 0.28 0.35 0.38 0.41 0.43 0.40 0.37 0.36 0.34 0.36 0.33 0.32 0.35 0.25 0.24 0.33 0.46 0.59 0.76 0.80 0.64 0.48 0.34 0.27 0.24 0.21 0.22
0.02 0.02 0.03 0.05 0.07 0.10 0.16 0.19 0.19 0.19 0.21 0.23 0.25 0.26 0.25 0.26 0.30 0.36 0.37 0.39 0.41 0.39 0.33 0.30 0.34 0.38 0.38 0.33 0.27 0.22 0.17 0.22 0.40 0.56 0.80 0.90 0.77 0.64 0.50 0.40 0.34 0.28 0.24
0.01 0.02 0.03 0.06 0.08 0.09 0.11 0.14 0.17 0.21 0.24 0.25 0.25 0.24 0.26 0.27 0.33 0.40 0.42 0.44 0.42 0.37 0.31 0.28 0.34 0.37 0.39 0.37 0.37 0.35 0.26 0.25 0.37 0.44 0.58 0.73 0.79 0.73 0.67 0.56 0.45 0.36 0.32
0.02 0.03 0.07 0.10 0.11 0.09 0.08 0.09 0.14 0.22 0.30 0.31 0.29 0.27 0.28 0.31 0.33 0.37 0.40 0.37 0.36 0.30 0.28 0.29 0.37 0.40 0.40 0.34 0.30 0.36 0.38 0.38 0.43 0.44 0.56 0.73 0.85 0.87 0.83 0.80 0.68 0.56 0.49
0.05 0.08 0.12 0.13 0.11 0.09 0.08 0.10 0.17 0.27 0.37 0.37 0.31 0.29 0.29 0.33 0.35 0.35 0.36 0.30 0.21 0.19 0.18 0.19 0.24 0.28 0.25 0.18 0.14 0.19 0.24 0.25 0.28 0.34 0.50 0.67 0.83 0.95 0.98 0.99 0.93 0.80 0.68

GEFSMW_prec_meanprecacc_072.txt.gz
Total_Precipitation_Accumulation
1.44 1.67 2.01 2.47 2.88 3.32 3.65 3.56 2.82 2.25 1.88 1.53 1.13 0.94 0.90 0.81 0.72 0.70 0.64 0.61 0.56 0.52 0.47 0.41 0.40 0.37 0.36 0.38 0.40 0.47 0.55 0.59 0.67 0.74 0.71 0.64 0.59 0.58 0.57 0.54 0.52 0.54 0.66
1.50 1.83 2.18 2.38 2.18 2.16 2.17 1.67 1.31 1.07 0.88 0.75 0.56 0.43 0.39 0.36 0.35 0.35 0.35 0.33 0.37 0.40 0.39 0.37 0.36 0.35 0.34 0.34 0.36 0.41 0.45 0.47 0.54 0.60 0.59 0.53 0.50 0.52 0.45 0.51 0.51 0.51 0.66
1.75 2.02 1.94 1.68 1.48 1.35 1.16 0.80 0.60 0.58 0.48 0.38 0.28 0.23 0.21 0.21 0.21 0.22 0.22 0.22 0.23 0.26 0.29 0.33 0.36 0.35 0.31 0.30 0.32 0.34 0.35 0.35 0.38 0.48 0.53 0.48 0.42 0.39 0.39 0.43 0.47 0.53 0.61
1.80 1.65 1.10 0.73 0.66 0.63 0.60 0.63 0.61 0.49 0.35 0.30 0.21 0.16 0.13 0.13 0.13 0.15 0.15 0.17 0.16 0.16 0.18 0.24 0.29 0.30 0.31 0.31 0.25 0.26 0.31 0.32 0.28 0.32 0.40 0.37 0.38 0.42 0.40 0.39 0.45 0.53 0.52
0.92 0.59 0.34 0.23 0.27 0.35 0.52 0.74 0.74 0.52 0.35 0.29 0.24 0.23 0.20 0.19 0.17 0.17 0.18 0.20 0.20 0.20 0.17 0.17 0.22 0.27 0.33 0.38 0.34 0.32 0.30 0.29 0.26 0.26 0.33 0.34 0.30 0.35 0.41 0.39 0.40 0.44 0.38
0.35 0.20 0.16 0.20 0.26 0.30 0.37 0.46 0.54 0.61 0.54 0.48 0.37 0.35 0.34 0.31 0.28 0.26 0.25 0.25 0.26 0.28 0.27 0.27 0.30 0.33 0.33 0.34 0.36 0.39 0.38 0.36 0.33 0.26 0.29 0.42 0.39 0.29 0.34 0.35 0.38 0.39 0.28
0.16 0.19 0.21 0.24 0.21 0.17 0.16 0.18 0.22 0.32 0.38 0.41 0.43 0.43 0.42 0.37 0.32 0.28 0.24 0.27 0.25 0.27 0.29 0.29 0.33 0.37 0.37 0.34 0.32 0.33 0.39 0.45 0.45 0.35 0.27 0.30 0.42 0.37 0.31 0.31 0.30 0.33 0.33
0.05 0.07 0.09 0.08 0.07 0.08 0.08 0.08 0.08 0.10 0.12 0.15 0.18 0.23 0.29 0.27 0.26 0.30 0.24 0.25 0.29 0.29 0.27 0.25 0.25 0.28 0.31 0.32 0.30 0.26 0.27 0.34 0.43 0.45 0.46 0.41 0.35 0.42 0.37 0.31 0.33 0.38 0.43
0.01 0.01 0.02 0.03 0.04 0.04 0.04 0.05 0.04 0.04 0.04 0.05 0.06 0.07 0.12 0.15 0.16 0.17 0.16 0.17 0.24 0.26 0.24 0.22 0.20 0.20 0.23 0.26 0.28 0.26 0.27 0.27 0.28 0.36 0.49 0.51 0.41 0.38 0.39 0.38 0.43 0.56 0.54
0.01 0.00 0.01 0.01 0.01 0.02 0.02 0.03 0.04 0.04 0.03 0.03 0.03 0.02 0.04 0.08 0.10 0.11 0.12 0.15 0.18 0.21 0.20 0.17 0.14 0.14 0.15 0.17 0.22 0.25 0.28 0.33 0.36 0.37 0.43 0.54 0.58 0.51 0.48 0.48 0.53 0.66 0.66
0.00 0.01 0.00 0.00 0.01 0.01 0.01 0.02 0.02 0.02 0.02 0.02 0.01 0.01 0.01 0.02 0.06 0.11 0.15 0.18 0.20 0.20 0.20 0.17 0.15 0.12 0.12 0.15 0.18 0.21 0.27 0.33 0.42 0.51 0.51 0.50 0.62 0.70 0.65 0.63 0.64 0.68 0.74
0.00 0.00 0.00 0.00 0.01 0.01 0.01 0.01 0.01 0.01 0.01 0.01 0.00 0.00 0.00 0.00 0.01 0.03 0.08 0.14 0.20 0.21 0.21 0.20 0.17 0.12 0.10 0.12 0.14 0.16 0.21 0.29 0.39 0.55 0.71 0.72 0.67 0.65 0.64 0.63 0.64 0.70 0.81
0.00 0.00 0.00 0.00 0.00 0.00 0.00 0.00 0.00 0.00 0.00 0.00 0.00 0.00 0.00 0.01 0.01 0.01 0.02 0.04 0.10 0.16 0.19 0.19 0.18 0.16 0.14 0.13 0.11 0.12 0.15 0.19 0.25 0.38 0.61 0.80 0.93 0.85 0.67 0.58 0.56 0.64 0.78
0.00 0.00 0.00 0.00 0.00 0.00 0.00 0.00 0.00 0.00 0.00 0.00 0.00 0.01 0.02 0.03 0.03 0.03 0.03 0.03 0.04 0.09 0.14 0.18 0.20 0.18 0.16 0.14 0.13 0.14 0.15 0.16 0.19 0.26 0.36 0.49 0.69 0.86 0.91 0.78 0.65 0.64 0.71
0.00 0.01 0.00 0.00 0.00 0.00 0.00 0.00 0.00 0.00 0.00 0.01 0.01 0.02 0.02 0.02 0.03 0.05 0.06 0.06 0.07 0.08 0.13 0.19 0.21 0.20 0.18 0.13 0.14 0.17 0.15 0.17 0.18 0.20 0.25 0.28 0.36 0.49 0.65 0.76 0.81 0.78 0.73
0.01 0.01 0.01 0.00 0.00 0.00 0.01 0.01 0.01 0.01 0.01 0.02 0.02 0.02 0.03 0.04 0.05 0.05 0.06 0.07 0.09 0.12 0.15 0.19 0.24 0.24 0.17 0.12 0.11 0.13 0.17 0.21 0.25 0.26 0.26 0.23 0.22 0.25 0.35 0.47 0.61 0.75 0.79
0.01 0.01 0.02 0.01 0.01 0.01 0.01 0.01 0.02 0.02 0.02 0.02 0.02 0.03 0.05 0.06 0.07 0.08 0.09 0.11 0.14 0.17 0.18 0.20 0.27 0.31 0.31 0.21 0.13 0.10 0.15 0.21 0.26 0.32 0.35 0.25 0.15 0.20 0.25 0.31 0.38 0.47 0.57
0.02 0.02 0.02 0.03 0.03 0.03 0.03 0.03 0.03 0.03 0.03 0.04 0.04 0.06 0.08 0.09 0.11 0.13 0.16 0.19 0.22 0.22 0.22 0.23 0.28 0.37 0.38 0.31 0.21 0.15 0.17 0.23 0.27 0.32 0.36 0.34 0.28 0.26 0.28 0.31 0.31 0.32 0.36
0.05 0.05 0.05 0.06 0.07 0.07 0.08 0.07 0.06 0.06 0.06 0.06 0.08 0.10 0.13 0.16 0.18 0.21 0.25 0.28 0.29 0.27 0.26 0.25 0.29 0.37 0.43 0.37 0.26 0.23 0.24 0.27 0.29 0.32 0.36 0.39 0.37 0.27 0.21 0.26 0.27 0.28 0.30
0.07 0.06 0.06 0.06 0.06 0.07 0.08 0.10 0.10 0.10 0.11 0.12 0.14 0.17 0.21 0.27 0.30 0.33 0.38 0.39 0.39 0.34 0.30 0.25 0.29 0.34 0.45 0.45 0.31 0.27 0.28 0.31 0.35 0.46 0.50 0.45 0.39 0.32 0.21 0.23 0.27 0.26 0.26
0.07 0.06 0.05 0.05 0.05 0.07 0.09 0.12 0.14 0.16 0.17 0.18 0.20 0.23 0.29 0.35 0.36 0.39 0.41 0.43 0.42 0.39 0.37 0.33 0.32 0.35 0.40 0.46 0.36 0.32 0.33 0.38 0.46 0.55 0.65 0.62 0.47 0.34 0.25 0.23 0.25 0.23 0.27
0.05 0.04 0.05 0.06 0.07 0.09 0.14 0.17 0.18 0.19 0.20 0.21 0.23 0.26 0.29 0.30 0.30 0.37 0.40 0.43 0.45 0.42 0.39 0.37 0.35 0.38 0.36 0.34 0.38 0.29 0.27 0.34 0.47 0.59 0.77 0.81 0.66 0.49 0.36 0.28 0.24 0.22 0.22
0.03 0.03 0.04 0.05 0.08 0.11 0.17 0.20 0.19 0.20 0.21 0.23 0.26 0.26 0.26 0.27 0.31 0.36 0.38 0.39 0.41 0.39 0.34 0.31 0.35 0.39 0.40 0.35 0.28 0.24 0.18 0.24 0.41 0.56 0.80 0.91 0.78 0.65 0.51 0.40 0.35 0.29 0.25
0.03 0.03 0.05 0.07 0.09 0.10 0.12 0.14 0.18 0.22 0.25 0.26 0.26 0.25 0.26 0.28 0.33 0.41 0.43 0.45 0.43 0.37 0.31 0.29 0.34 0.37 0.39 0.37 0.37 0.35 0.26 0.25 0.37 0.45 0.59 0.74 0.80 0.74 0.68 0.57 0.46 0.37 0.33
0.04 0.05 0.08 0.11 0.11 0.09 0.08 0.09 0.14 0.22 0.30 0.31 0.29 0.27 0.28 0.31 0.33 0.37 0.40 0.37 0.36 0.30 0.28 0.29 0.37 0.40 0.40 0.34 0.30 0.36 0.38 0.38 0.43 0.45 0.58 0.74 0.86 0.88 0.85 0.82 0.71 0.59 0.52
0.05 0.09 0.13 0.13 0.11 0.09 0.08 0.10 0.17 0.27 0.37 0.37 0.31 0.29 0.29 0.33 0.35 0.35 0.36 0.30 0.21 0.19 0.18 0.19 0.24 0.28 0.25 0.18 0.14 0.19 0.24 0.26 0.29 0.35 0.52 0.69 0.86 0.98 1.02 1.04 0.98 0.87 0.75

GEFSMW_prec_meanprecacc_078.txt.gz
Total_Precipitation_Accumulation
1.55 1.82 2.18 2.62 3.06 3.49 3.79 3.68 2.97 2.40 1.98 1.60 1.18 0.98 0.93 0.82 0.73 0.70 0.65 0.61 0.56 0.52 0.47 0.41 0.40 0.37 0.36 0.39 0.41 0.48 0.56 0.59 0.67 0.74 0.72 0.64 0.59 0.58 0.58 0.55 0.54 0.56 0.68
1.58 1.93 2.29 2.51 2.35 2.32 2.31 1.79 1.46 1.19 0.99 0.84 0.61 0.47 0.40 0.37 0.35 0.35 0.35 0.33 0.37 0.40 0.39 0.37 0.36 0.35 0.34 0.34 0.36 0.42 0.45 0.47 0.54 0.60 0.59 0.54 0.51 0.52 0.45 0.52 0.52 0.52 0.68
1.80 2.09 2.03 1.77 1.60 1.47 1.28 0.93 0.72 0.69 0.59 0.48 0.33 0.26 0.22 0.21 0.21 0.22 0.22 0.22 0.23 0.26 0.29 0.33 0.36 0.35 0.31 0.30 0.32 0.34 0.35 0.36 0.38 0.48 0.53 0.49 0.44 0.40 0.39 0.43 0.47 0.53 0.61
1.83 1.70 1.17 0.81 0.75 0.72 0.70 0.74 0.70 0.59 0.43 0.38 0.27 0.19 0.15 0.14 0.14 0.15 0.15 0.17 0.16 0.16 0.18 0.24 0.29 0.30 0.31 0.31 0.25 0.26 0.31 0.32 0.28 0.32 0.40 0.38 0.39 0.44 0.42 0.39 0.45 0.53 0.52
0.94 0.64 0.40 0.31 0.34 0.44 0.59 0.81 0.81 0.59 0.41 0.35 0.30 0.26 0.23 0.20 0.18 0.18 0.19 0.20 0.20 0.20 0.17 0.17 0.22 0.27 0.33 0.38 0.34 0.32 0.30 0.29 0.26 0.26 0.34 0.34 0.30 0.35 0.42 0.40 0.40 0.44 0.38
0.36 0.25 0.24 0.30 0.35 0.38 0.43 0.50 0.58 0.64 0.57 0.51 0.42 0.38 0.37 0.35 0.30 0.27 0.26 0.26 0.26 0.29 0.27 0.27 0.30 0.33 0.33 0.34 0.36 0.39 0.38 0.36 0.33 0.26 0.29 0.42 0.39 0.29 0.35 0.35 0.39 0.39 0.28
0.18 0.22 0.26 0.30 0.28 0.24 0.21 0.21 0.24 0.34 0.40 0.44 0.47 0.45 0.45 0.41 0.35 0.30 0.25 0.27 0.26 0.27 0.29 0.29 0.33 0.37 0.37 0.34 0.32 0.33 0.39 0.45 0.45 0.35 0.27 0.30 0.42 0.37 0.31 0.31 0.30 0.33 0.33
0.05 0.08 0.11 0.10 0.10 0.11 0.12 0.11 0.10 0.11 0.14 0.17 0.22 0.26 0.32 0.29 0.28 0.32 0.25 0.26 0.29 0.29 0.27 0.25 0.25 0.28 0.31 0.32 0.30 0.26 0.27 0.34 0.43 0.45 0.46 0.41 0.35 0.42 0.37 0.31 0.33 0.38 0.43
0.01 0.02 0.03 0.04 0.04 0.05 0.07 0.07 0.06 0.06 0.06 0.07 0.08 0.09 0.14 0.18 0.19 0.20 0.17 0.18 0.24 0.26 0.24 0.22 0.20 0.20 0.23 0.26 0.28 0.26 0.27 0.27 0.29 0.36 0.49 0.51 0.41 0.38 0.39 0.38 0.43 0.56 0.54
0.01 0.01 0.01 0.01 0.02 0.02 0.04 0.05 0.05 0.05 0.05 0.05 0.04 0.04 0.07 0.10 0.12 0.12 0.13 0.16 0.19 0.21 0.20 0.17 0.14 0.14 0.15 0.17 0.22 0.25 0.28 0.33 0.36 0.37 0.43 0.54 0.58 0.51 0.48 0.48 0.53 0.66 0.66
0.00 0.01 0.00 0.00 0.01 0.01 0.02 0.02 0.02 0.03 0.03 0.03 0.03 0.03 0.03 0.04 0.07 0.12 0.16 0.19 0.20 0.21 0.20 0.18 0.15 0.12 0.12 0.15 0.18 0.21 0.27 0.33 0.42 0.51 0.51 0.50 0.62 0.70 0.65 0.63 0.64 0.68 0.74
0.00 0.00 0.00 0.00 0.01 0.01 0.01 0.01 0.01 0.01 0.01 0.01 0.02 0.02 0.02 0.02 0.03 0.05 0.09 0.16 0.21 0.22 0.21 0.20 0.17 0.12 0.10 0.12 0.14 0.16 0.21 0.29 0.39 0.55 0.71 0.72 0.67 0.65 0.64 0.63 0.64 0.70 0.81
0.00 0.00 0.00 0.00 0.00 0.00 0.00 0.00 0.00 0.00 0.00 0.01 0.01 0.02 0.03 0.04 0.05 0.05 0.04 0.06 0.11 0.17 0.19 0.19 0.18 0.16 0.14 0.13 0.11 0.12 0.15 0.20 0.25 0.38 0.61 0.80 0.93 0.86 0.67 0.58 0.56 0.64 0.78
0.00 0.00 0.00 0.00 0.00 0.00 0.00 0.00 0.00 0.00 0.01 0.01 0.02 0.04 0.06 0.07 0.06 0.06 0.06 0.06 0.07 0.10 0.15 0.19 0.20 0.19 0.17 0.15 0.13 0.14 0.15 0.16 0.19 0.26 0.36 0.49 0.70 0.86 0.91 0.78 0.65 0.64 0.72
0.01 0.02 0.03 0.01 0.01 0.01 0.01 0.01 0.02 0.02 0.03 0.06 0.09 0.09 0.08 0.08 0.08 0.10 0.10 0.10 0.10 0.11 0.15 0.21 0.22 0.22 0.19 0.13 0.14 0.17 0.15 0.17 0.18 0.21 0.26 0.28 0.36 0.49 0.65 0.77 0.82 0.80 0.74
0.02 0.03 0.03 0.03 0.02 0.02 0.05 0.05 0.04 0.04 0.05 0.09 0.13 0.14 0.16 0.16 0.15 0.15 0.14 0.14 0.14 0.16 0.19 0.22 0.25 0.25 0.18 0.14 0.12 0.14 0.17 0.22 0.26 0.27 0.28 0.25 0.23 0.26 0.36 0.47 0.61 0.76 0.80
0.02 0.03 0.04 0.03 0.02 0.02 0.03 0.04 0.04 0.05 0.07 0.09 0.10 0.12 0.17 0.21 0.22 0.18 0.19 0.21 0.23 0.24 0.25 0.25 0.32 0.35 0.33 0.23 0.15 0.12 0.16 0.22 0.28 0.34 0.38 0.26 0.16 0.23 0.29 0.34 0.40 0.48 0.58
0.03 0.04 0.05 0.06 0.07 0.08 0.08 0.08 0.07 0.08 0.10 0.11 0.12 0.14 0.19 0.24 0.24 0.23 0.25 0.29 0.31 0.31 0.31 0.30 0.35 0.43 0.41 0.35 0.25 0.19 0.20 0.24 0.28 0.33 0.38 0.37 0.30 0.29 0.33 0.37 0.36 0.36 0.38
0.06 0.06 0.07 0.09 0.12 0.15 0.14 0.13 0.15 0.17 0.16 0.16 0.18 0.20 0.26 0.28 0.27 0.28 0.32 0.34 0.35 0.32 0.31 0.30 0.33 0.42 0.47 0.41 0.30 0.27 0.26 0.28 0.31 0.34 0.39 0.43 0.40 0.31 0.26 0.32 0.34 0.34 0.34
0.08 0.07 0.08 0.10 0.11 0.14 0.17 0.17 0.17 0.19 0.20 0.22 0.25 0.26 0.30 0.38 0.40 0.40 0.44 0.44 0.44 0.39 0.35 0.31 0.34 0.39 0.50 0.50 0.35 0.31 0.30 0.33 0.37 0.49 0.54 0.49 0.43 0.36 0.25 0.28 0.33 0.32 0.30
0.07 0.07 0.07 0.07 0.08 0.10 0.14 0.16 0.19 0.21 0.23 0.24 0.26 0.29 0.35 0.41 0.41 0.44 0.46 0.47 0.45 0.43 0.41 0.37 0.36 0.39 0.45 0.51 0.40 0.34 0.35 0.39 0.48 0.58 0.68 0.66 0.51 0.37 0.28 0.26 0.29 0.26 0.31
0.05 0.05 0.06 0.08 0.09 0.11 0.16 0.20 0.22 0.22 0.24 0.25 0.27 0.29 0.32 0.33 0.32 0.39 0.43 0.46 0.47 0.45 0.42 0.40 0.37 0.40 0.38 0.37 0.39 0.29 0.27 0.35 0.48 0.60 0.78 0.83 0.68 0.50 0.37 0.29 0.25 0.23 0.24
0.03 0.03 0.04 0.06 0.08 0.12 0.18 0.22 0.22 0.23 0.24 0.26 0.28 0.28 0.27 0.28 0.31 0.37 0.38 0.40 0.42 0.40 0.35 0.32 0.35 0.39 0.41 0.35 0.29 0.24 0.18 0.24 0.41 0.56 0.81 0.91 0.79 0.66 0.52 0.41 0.36 0.30 0.26
0.04 0.04 0.06 0.08 0.10 0.11 0.13 0.16 0.19 0.23 0.26 0.27 0.27 0.26 0.27 0.29 0.35 0.42 0.44 0.45 0.44 0.38 0.32 0.29 0.34 0.37 0.39 0.38 0.37 0.35 0.26 0.25 0.37 0.45 0.59 0.74 0.80 0.74 0.68 0.58 0.46 0.37 0.34
0.07 0.07 0.10 0.12 0.12 0.10 0.09 0.10 0.15 0.23 0.31 0.32 0.29 0.28 0.29 0.31 0.34 0.38 0.41 0.37 0.37 0.30 0.28 0.29 0.37 0.40 0.40 0.34 0.30 0.36 0.38 0.38 0.44 0.45 0.58 0.74 0.87 0.89 0.85 0.82 0.72 0.61 0.54
0.08 0.11 0.15 0.16 0.14 0.12 0.11 0.12 0.18 0.28 0.38 0.38 0.32 0.29 0.30 0.33 0.35 0.35 0.36 0.30 0.21 0.19 0.18 0.19 0.24 0.28 0.25 0.18 0.14 0.19 0.24 0.26 0.29 0.35 0.52 0.69 0.86 0.99 1.03 1.06 1.01 0.90 0.80

GEFSMW_prec_meanprecacc_084.txt.gz
Total_Precipitation_Accumulation
1.72 2.15 2.66 2.99 3.43 3.88 4.21 4.04 3.27 2.61 2.11 1.67 1.22 1.01 0.95 0.84 0.74 0.71 0.65 0.61 0.57 0.52 0.47 0.41 0.40 0.37 0.36 0.39 0.41 0.48 0.56 0.59 0.67 0.75 0.72 0.65 0.60 0.59 0.58 0.56 0.55 0.58 0.70
1.73 2.28 2.75 2.85 2.64 2.60 2.60 2.08 1.71 1.39 1.09 0.89 0.65 0.49 0.42 0.38 0.36 0.35 0.35 0.34 0.37 0.40 0.39 0.37 0.36 0.35 0.34 0.34 0.36 0.42 0.45 0.47 0.54 0.60 0.59 0.54 0.52 0.53 0.46 0.52 0.52 0.52 0.68
1.85 2.24 2.27 2.07 1.86 1.71 1.48 1.13 0.91 0.85 0.69 0.53 0.36 0.28 0.23 0.22 0.22 0.22 0.22 0.22 0.23 0.26 0.29 0.33 0.36 0.35 0.31 0.30 0.32 0.34 0.36 0.36 0.38 0.48 0.53 0.49 0.45 0.41 0.39 0.43 0.47 0.53 0.61
1.87 1.76 1.27 1.00 0.99 1.01 0.92 0.93 0.86 0.73 0.54 0.43 0.30 0.20 0.16 0.15 0.14 0.15 0.16 0.17 0.16 0.16 0.18 0.24 0.29 0.30 0.31 0.31 0.25 0.26 0.31 0.32 0.28 0.32 0.40 0.38 0.39 0.44 0.42 0.40 0.45 0.53 0.52
0.98 0.71 0.49 0.42 0.52 0.69 0.81 0.99 0.96 0.75 0.53 0.40 0.32 0.29 0.25 0.22 0.19 0.18 0.19 0.20 0.20 0.20 0.17 0.17 0.22 0.27 0.33 0.38 0.35 0.32 0.30 0.29 0.26 0.26 0.34 0.34 0.30 0.35 0.42 0.41 0.40 0.44 0.38
0.41 0.36 0.37 0.41 0.50 0.61 0.61 0.66 0.71 0.77 0.69 0.58 0.44 0.40 0.39 0.36 0.30 0.27 0.26 0.26 0.26 0.29 0.27 0.27 0.30 0.33 0.33 0.34 0.36 0.39 0.38 0.36 0.33 0.26 0.29 0.42 0.39 0.29 0.35 0.35 0.39 0.39 0.28
0.22 0.30 0.33 0.37 0.36 0.38 0.34 0.33 0.36 0.44 0.47 0.49 0.50 0.48 0.46 0.42 0.35 0.30 0.26 0.27 0.26 0.27 0.29 0.29 0.33 0.37 0.37 0.34 0.32 0.33 0.39 0.45 0.45 0.35 0.27 0.30 0.42 0.37 0.31 0.31 0.30 0.33 0.33
0.09 0.11 0.13 0.12 0.14 0.20 0.22 0.20 0.21 0.19 0.19 0.20 0.25 0.29 0.33 0.30 0.29 0.33 0.25 0.26 0.29 0.29 0.27 0.25 0.25 0.28 0.31 0.32 0.30 0.26 0.27 0.34 0.43 0.45 0.46 0.41 0.35 0.42 0.37 0.31 0.33 0.38 0.43
0.02 0.03 0.04 0.06 0.06 0.08 0.10 0.12 0.13 0.12 0.10 0.10 0.11 0.11 0.15 0.18 0.19 0.20 0.18 0.18 0.24 0.26 0.24 0.22 0.20 0.20 0.23 0.26 0.28 0.26 0.27 0.27 0.29 0.36 0.49 0.51 0.41 0.38 0.39 0.38 0.43 0.56 0.54
0.02 0.01 0.02 0.02 0.03 0.03 0.05 0.07 0.08 0.08 0.07 0.06 0.05 0.04 0.07 0.11 0.13 0.13 0.14 0.16 0.19 0.22 0.20 0.17 0.14 0.14 0.15 0.17 0.22 0.25 0.28 0.33 0.36 0.37 0.43 0.54 0.58 0.51 0.48 0.48 0.53 0.66 0.66
0.02 0.02 0.01 0.01 0.01 0.02 0.03 0.03 0.04 0.04 0.04 0.04 0.04 0.04 0.03 0.05 0.08 0.13 0.17 0.20 0.21 0.21 0.20 0.18 0.15 0.12 0.12 0.15 0.18 0.21 0.27 0.33 0.42 0.51 0.51 0.50 0.62 0.70 0.65 0.63 0.64 0.68 0.74
0.03 0.03 0.02 0.02 0.01 0.02 0.02 0.01 0.02 0.02 0.02 0.02 0.02 0.03 0.03 0.04 0.05 0.07 0.10 0.17 0.22 0.23 0.22 0.20 0.17 0.12 0.10 0.12 0.14 0.16 0.21 0.29 0.39 0.55 0.71 0.72 0.67 0.65 0.64 0.63 0.64 0.70 0.81
0.03 0.03 0.03 0.03 0.02 0.02 0.01 0.00 0.01 0.01 0.02 0.04 0.04 0.05 0.06 0.06 0.07 0.07 0.06 0.09 0.13 0.19 0.21 0.20 0.19 0.16 0.14 0.13 0.12 0.12 0.15 0.20 0.25 0.38 0.61 0.80 0.93 0.86 0.67 0.58 0.56 0.64 0.79
0.02 0.02 0.03 0.03 0.06 0.07 0.05 0.04 0.04 0.05 0.07 0.07 0.08 0.09 0.11 0.11 0.10 0.10 0.10 0.10 0.10 0.13 0.18 0.22 0.23 0.21 0.19 0.16 0.14 0.14 0.15 0.16 0.19 0.26 0.36 0.49 0.70 0.86 0.92 0.79 0.66 0.65 0.73
0.05 0.06 0.09 0.08 0.08 0.10 0.12 0.14 0.15 0.15 0.17 0.22 0.25 0.28 0.24 0.22 0.22 0.22 0.20 0.19 0.18 0.17 0.23 0.29 0.29 0.27 0.24 0.18 0.17 0.20 0.17 0.18 0.18 0.21 0.26 0.29 0.37 0.50 0.68 0.79 0.84 0.82 0.76
0.07 0.08 0.12 0.14 0.12 0.13 0.17 0.20 0.21 0.22 0.28 0.35 0.43 0.46 0.47 0.46 0.43 0.38 0.31 0.30 0.31 0.33 0.34 0.38 0.40 0.38 0.30 0.24 0.20 0.19 0.20 0.24 0.28 0.29 0.29 0.26 0.25 0.29 0.39 0.52 0.66 0.81 0.84
0.06 0.08 0.15 0.20 0.18 0.18 0.18 0.20 0.22 0.24 0.31 0.38 0.39 0.41 0.45 0.47 0.49 0.47 0.45 0.43 0.44 0.47 0.47 0.49 0.53 0.52 0.50 0.40 0.29 0.22 0.23 0.27 0.32 0.38 0.42 0.29 0.19 0.26 0.32 0.39 0.45 0.52 0.63
0.08 0.08 0.13 0.19 0.23 0.24 0.24 0.27 0.31 0.36 0.40 0.43 0.43 0.45 0.52 0.57 0.56 0.52 0.48 0.49 0.53 0.53 0.53 0.52 0.54 0.60 0.58 0.50 0.38 0.30 0.29 0.32 0.34 0.39 0.43 0.41 0.33 0.33 0.37 0.41 0.40 0.39 0.40
0.14 0.12 0.15 0.21 0.25 0.31 0.31 0.30 0.35 0.42 0.44 0.44 0.48 0.54 0.63 0.67 0.58 0.49 0.49 0.50 0.50 0.46 0.43 0.42 0.44 0.52 0.56 0.51 0.40 0.37 0.34 0.34 0.36 0.39 0.43 0.47 0.44 0.34 0.29 0.34 0.35 0.36 0.36
0.14 0.14 0.17 0.20 0.23 0.29 0.33 0.35 0.35 0.38 0.41 0.42 0.44 0.47 0.52 0.62 0.66 0.60 0.58 0.55 0.55 0.50 0.45 0.41 0.44 0.48 0.60 0.59 0.46 0.42 0.38 0.40 0.43 0.54 0.57 0.52 0.45 0.38 0.26 0.29 0.34 0.32 0.31
0.11 0.11 0.13 0.15 0.16 0.19 0.24 0.27 0.28 0.30 0.31 0.31 0.32 0.36 0.43 0.49 0.51 0.55 0.56 0.58 0.57 0.55 0.51 0.46 0.42 0.44 0.50 0.56 0.45 0.39 0.39 0.43 0.51 0.60 0.70 0.67 0.53 0.38 0.28 0.26 0.29 0.27 0.32
0.07 0.07 0.08 0.10 0.11 0.14 0.20 0.25 0.26 0.26 0.27 0.28 0.29 0.31 0.34 0.35 0.36 0.44 0.48 0.52 0.54 0.52 0.48 0.45 0.41 0.43 0.41 0.39 0.41 0.30 0.28 0.35 0.48 0.61 0.78 0.83 0.68 0.50 0.37 0.29 0.25 0.23 0.24
0.05 0.04 0.05 0.07 0.09 0.13 0.20 0.24 0.24 0.25 0.26 0.27 0.30 0.30 0.29 0.29 0.33 0.38 0.40 0.41 0.43 0.42 0.36 0.33 0.37 0.41 0.42 0.36 0.30 0.25 0.19 0.24 0.41 0.56 0.81 0.91 0.79 0.66 0.52 0.41 0.36 0.30 0.26
0.06 0.05 0.06 0.09 0.11 0.12 0.13 0.16 0.20 0.23 0.26 0.27 0.27 0.26 0.28 0.29 0.35 0.42 0.44 0.45 0.44 0.38 0.32 0.30 0.35 0.38 0.40 0.38 0.38 0.36 0.27 0.26 0.38 0.45 0.59 0.74 0.80 0.74 0.68 0.58 0.46 0.38 0.34
0.08 0.08 0.10 0.13 0.12 0.11 0.09 0.10 0.15 0.23 0.31 0.32 0.29 0.28 0.29 0.31 0.34 0.38 0.41 0.37 0.37 0.30 0.28 0.29 0.38 0.40 0.40 0.34 0.30 0.36 0.38 0.38 0.44 0.45 0.58 0.74 0.87 0.89 0.86 0.82 0.72 0.61 0.54
0.10 0.12 0.16 0.17 0.14 0.12 0.11 0.12 0.18 0.28 0.38 0.39 0.32 0.29 0.30 0.33 0.36 0.36 0.36 0.30 0.21 0.19 0.18 0.19 0.24 0.28 0.25 0.18 0.14 0.19 0.24 0.26 0.29 0.35 0.52 0.69 0.86 0.99 1.04 1.07 1.01 0.90 0.81